M I D A S
Marine Information and Data Acquisition System
Tripno 2328 of the Zeeleeuw from 2012-06-13 06:36:32 to 2012-06-13 15:00:56
Back to CruiseResearch ActivitiesStationsMapUnderway DataData graphs

EquipmentUnitsComment
TimeDGPSUTC
LatitudeDGPSDM.mWGS84
LongitudeDGPSDM.mWGS84
TemperatureSBE03/SBE38deg celciusITS90
ConductivitySBE21S/mITS90
SalinitySBE21 Practical Salinity Units
ChlorophylAChelsea fluorimeterg/lCalibrated in Aceton
Missing or incorrect values are displayed as -999
Sea surface data collected by the RV Zeeleeuw from 2012-06-13 06:15:50 to 2012-06-13 15:20:09
                                                                                    Next 1000 lines
Time Latitude Longitude Temperature Conductivity Salinity ChlorophylA
2012-06-13 06:15:59 51°13.631 2°56.009 16.9062 0.059984 0.364009 -2.458615
2012-06-13 06:16:04 51°13.632 2°56.005 16.9198 0.059881 0.363371 -2.458615
2012-06-13 06:16:10 51°13.633 2°56 16.9308 0.059881 0.363371 -2.458615
2012-06-13 06:16:15 51°13.634 2°55.996 16.929 0.059881 0.363371 -2.458615
2012-06-13 06:16:19 51°13.635 2°55.993 16.9324 0.059984 0.364016 -2.458615
2012-06-13 06:16:24 51°13.636 2°55.988 16.935 0.059881 0.363379 -2.458615
2012-06-13 06:16:30 51°13.637 2°55.983 16.9352 0.059881 0.363379 -2.458615
2012-06-13 06:16:35 51°13.638 2°55.979 16.9338 0.059984 0.364024 -2.458615
2012-06-13 06:16:39 51°13.638 2°55.975 16.9351 0.059881 0.363379 -2.458615
2012-06-13 06:16:45 51°13.639 2°55.97 16.9369 0.059881 0.363386 -2.458615
2012-06-13 06:16:50 51°13.64 2°55.965 16.938 0.059984 0.364031 -2.458615
2012-06-13 06:16:55 51°13.641 2°55.96 16.9353 0.059984 0.364031 -2.458615
2012-06-13 06:16:59 51°13.642 2°55.956 16.9351 0.059984 0.364031 -2.458615
2012-06-13 06:17:04 51°13.643 2°55.951 16.9355 0.059881 0.363386 -2.458615
2012-06-13 06:17:09 51°13.644 2°55.946 16.9432 0.059881 0.363393 -2.458615
2012-06-13 06:17:15 51°13.645 2°55.938 16.9441 0.059881 0.363393 -2.458615
2012-06-13 06:17:19 51°13.646 2°55.933 16.9494 0.059984 0.364046 -2.458615
2012-06-13 06:17:24 51°13.648 2°55.926 16.9501 0.059984 0.364046 -2.458615
2012-06-13 06:17:29 51°13.65 2°55.919 16.9518 0.059984 0.364046 -2.458615
2012-06-13 06:17:34 51°13.652 2°55.911 16.9525 0.059881 0.363401 -2.458615
2012-06-13 06:17:39 51°13.653 2°55.903 16.9538 0.059881 0.363401 -2.458615
2012-06-13 06:17:44 51°13.656 2°55.896 16.9551 0.059881 0.363408 -2.458615
2012-06-13 06:17:49 51°13.658 2°55.888 16.9569 0.059881 0.363408 -2.458615
2012-06-13 06:17:54 51°13.66 2°55.88 16.9572 0.059881 0.363408 -2.458615
2012-06-13 06:17:59 51°13.663 2°55.871 16.9573 0.059881 0.363408 -2.458615
2012-06-13 06:18:04 51°13.666 2°55.863 16.9592 0.059881 0.363416 -2.458615
2012-06-13 06:18:09 51°13.668 2°55.855 16.959 0.059881 0.363416 -2.458615
2012-06-13 06:18:14 51°13.671 2°55.846 16.958 0.059881 0.363416 -2.458615
2012-06-13 06:18:19 51°13.675 2°55.838 16.9568 0.059881 0.363416 -2.458615
2012-06-13 06:18:25 51°13.678 2°55.829 16.9572 0.059881 0.363423 -2.458615
2012-06-13 06:18:29 51°13.681 2°55.822 16.9613 0.059881 0.363423 -2.458615
2012-06-13 06:18:35 51°13.685 2°55.813 16.9622 0.059881 0.363423 -2.458615
2012-06-13 06:18:39 51°13.688 2°55.807 16.9622 0.059881 0.363423 -2.458615
2012-06-13 06:18:44 51°13.692 2°55.8 16.9591 0.059881 0.363423 -2.458615
2012-06-13 06:18:50 51°13.696 2°55.791 16.9587 0.059881 0.36343 -2.458615
2012-06-13 06:18:54 51°13.699 2°55.784 16.9608 0.059881 0.36343 -2.458615
2012-06-13 06:18:59 51°13.704 2°55.776 16.9611 0.059881 0.36343 -2.458615
2012-06-13 06:19:04 51°13.708 2°55.768 16.9624 0.059881 0.363438 -2.458615
2012-06-13 06:19:09 51°13.712 2°55.76 16.963 0.059881 0.363438 -2.458615
2012-06-13 06:19:15 51°13.717 2°55.75 16.9616 0.059881 0.363438 -2.458615
2012-06-13 06:19:20 51°13.721 2°55.742 16.9666 0.059881 0.363438 -2.458615
2012-06-13 06:19:24 51°13.725 2°55.736 16.9656 0.059881 0.363438 -2.458615
2012-06-13 06:19:29 51°13.729 2°55.727 16.9629 0.059881 0.363438 -2.458615
2012-06-13 06:19:34 51°13.734 2°55.719 16.9648 0.059881 0.363445 -2.458615
2012-06-13 06:19:39 51°13.738 2°55.711 16.9629 0.059881 0.363445 -2.458615
2012-06-13 06:19:44 51°13.743 2°55.704 16.9633 0.059881 0.363445 -2.458615
2012-06-13 06:19:49 51°13.749 2°55.696 16.965 0.059881 0.363453 -2.458615
2012-06-13 06:19:53 51°13.753 2°55.69 16.9657 0.059881 0.363453 -2.458615
2012-06-13 06:19:59 51°13.76 2°55.681 16.9677 0.059881 0.363453 -2.458615
2012-06-13 06:20:05 51°13.767 2°55.672 16.9706 0.059881 0.363453 -2.458615
2012-06-13 06:20:10 51°13.773 2°55.665 16.9684 0.059881 0.36346 -2.458615
2012-06-13 06:20:14 51°13.778 2°55.66 16.9698 0.059881 0.36346 -2.458615
2012-06-13 06:20:19 51°13.785 2°55.653 16.9701 0.059881 0.36346 -2.458615
2012-06-13 06:20:24 51°13.791 2°55.647 16.9685 0.059881 0.363467 -2.458615
2012-06-13 06:20:29 51°13.798 2°55.641 16.9693 0.059881 0.363467 -2.458615
2012-06-13 06:20:35 51°13.806 2°55.634 16.9721 0.059881 0.363467 -2.458615
2012-06-13 06:20:39 51°13.811 2°55.63 16.9728 0.059881 0.363475 -2.458615
2012-06-13 06:20:44 51°13.818 2°55.624 16.9747 0.059881 0.363475 -2.458615
2012-06-13 06:20:49 51°13.824 2°55.619 16.973 0.059881 0.363475 -2.458615
2012-06-13 06:20:54 51°13.831 2°55.615 16.9733 0.059881 0.363475 -2.458615
2012-06-13 06:20:59 51°13.837 2°55.61 16.9726 0.059881 0.363475 -2.458615
2012-06-13 06:21:04 51°13.844 2°55.607 16.9742 0.059881 0.363475 -2.458615
2012-06-13 06:21:09 51°13.851 2°55.603 16.979 0.059881 0.363482 -2.458615
2012-06-13 06:21:14 51°13.857 2°55.601 16.9798 0.059881 0.363482 -2.458615
2012-06-13 06:21:19 51°13.864 2°55.599 16.9766 0.059881 0.363482 -2.458615
2012-06-13 06:21:24 51°13.871 2°55.597 16.9804 0.059881 0.36349 -2.458615
2012-06-13 06:21:29 51°13.877 2°55.597 16.9783 0.059881 0.36349 -2.458615
2012-06-13 06:21:35 51°13.885 2°55.598 16.9776 0.059881 0.36349 -2.458615
2012-06-13 06:21:39 51°13.89 2°55.599 16.9767 0.059881 0.36349 -2.458615
2012-06-13 06:21:44 51°13.896 2°55.602 16.9787 0.059881 0.36349 -2.458615
2012-06-13 06:21:49 51°13.902 2°55.605 16.9761 0.059881 0.36349 -2.458615
2012-06-13 06:21:54 51°13.908 2°55.609 16.978 0.059881 0.36349 -2.458615
2012-06-13 06:21:59 51°13.914 2°55.614 16.9841 0.059881 0.36349 -2.458615
2012-06-13 06:22:04 51°13.919 2°55.619 16.9835 0.059881 0.36349 -2.458615
2012-06-13 06:22:09 51°13.923 2°55.625 16.9799 0.059881 0.36349 -2.458615
2012-06-13 06:22:15 51°13.928 2°55.631 16.9795 0.059881 0.363497 -2.458615
2012-06-13 06:22:19 51°13.932 2°55.635 16.9808 0.059881 0.363497 -2.458615
2012-06-13 06:22:24 51°13.935 2°55.64 16.981 0.059881 0.363504 -2.458615
2012-06-13 06:22:29 51°13.939 2°55.645 16.9851 0.059881 0.363504 -2.458615
2012-06-13 06:22:34 51°13.942 2°55.65 16.9863 0.059881 0.363512 -2.458615
2012-06-13 06:22:39 51°13.944 2°55.654 16.988 0.059881 0.363527 -2.458615
2012-06-13 06:22:44 51°13.947 2°55.657 16.9898 0.059881 0.363527 -2.458615
2012-06-13 06:22:49 51°13.948 2°55.659 16.9949 0.059881 0.363527 -2.458615
2012-06-13 06:22:54 51°13.948 2°55.659 16.995 0.059881 0.363527 -2.458615
2012-06-13 06:22:59 51°13.948 2°55.657 16.981 0.059881 0.363527 -2.458615
2012-06-13 06:23:04 51°13.948 2°55.653 16.9697 0.059881 0.363527 -2.458615
2012-06-13 06:23:10 51°13.947 2°55.647 16.959 0.059881 0.363527 -2.458615
2012-06-13 06:23:15 51°13.948 2°55.641 16.9553 0.059881 0.363527 -2.458615
2012-06-13 06:23:20 51°13.949 2°55.635 16.961 0.059881 0.363527 -2.458615
2012-06-13 06:23:24 51°13.95 2°55.629 16.9611 0.059881 0.363534 -2.458615
2012-06-13 06:23:29 51°13.952 2°55.623 16.9763 0.059881 0.363534 -2.458615
2012-06-13 06:23:35 51°13.956 2°55.614 16.9839 0.059881 0.363534 -2.458615
2012-06-13 06:23:39 51°13.959 2°55.608 16.988 0.059881 0.363549 -2.458615
2012-06-13 06:23:44 51°13.964 2°55.601 16.9931 0.059881 0.363556 -2.458615
2012-06-13 06:23:49 51°13.97 2°55.594 16.9887 0.059881 0.363571 -2.458615
2012-06-13 06:23:54 51°13.976 2°55.585 16.9857 0.059881 0.363578 -2.458615
2012-06-13 06:23:59 51°13.983 2°55.576 16.988 0.059881 0.363578 -2.458615
2012-06-13 06:24:05 51°13.992 2°55.566 16.9847 0.059881 0.363578 -2.458615
2012-06-13 06:24:09 51°13.998 2°55.558 16.9838 0.059881 0.363586 -2.458615
2012-06-13 06:24:13 51°14.005 2°55.551 16.9845 0.059881 0.363578 -2.458615
2012-06-13 06:24:20 51°14.017 2°55.538 16.9825 0.059881 0.363586 -2.458615
2012-06-13 06:24:25 51°14.026 2°55.529 16.9831 0.059881 0.363586 -2.458615
2012-06-13 06:24:30 51°14.036 2°55.52 16.9822 0.059881 0.363586 -2.458615
2012-06-13 06:24:34 51°14.043 2°55.512 16.9829 0.059881 0.363586 -2.458615
2012-06-13 06:24:39 51°14.053 2°55.502 16.9807 0.059881 0.363586 -2.458615
2012-06-13 06:24:44 51°14.064 2°55.493 16.993 0.059881 0.363578 -2.458615
2012-06-13 06:24:50 51°14.076 2°55.481 16.9816 0.059881 0.363586 -2.458615
2012-06-13 06:24:55 51°14.086 2°55.471 16.9801 0.059881 0.363586 -2.458615
2012-06-13 06:24:59 51°14.094 2°55.463 16.9879 0.059881 0.363586 -2.458615
2012-06-13 06:25:04 51°14.104 2°55.452 16.9884 0.059881 0.363578 -2.458615
2012-06-13 06:25:09 51°14.114 2°55.442 16.9889 0.059881 0.363578 -2.458615
2012-06-13 06:25:14 51°14.124 2°55.431 16.9797 0.059881 0.363586 -2.458615
2012-06-13 06:25:19 51°14.135 2°55.422 16.986 0.059881 0.363586 -2.458615
2012-06-13 06:25:23 51°14.144 2°55.413 16.9894 0.059881 0.363586 -2.458615
2012-06-13 06:25:30 51°14.159 2°55.399 16.997 0.059881 0.363586 -2.458615
2012-06-13 06:25:35 51°14.17 2°55.389 16.9859 0.059881 0.363593 -2.458615
2012-06-13 06:25:40 51°14.181 2°55.379 16.9913 0.059881 0.363601 -2.458615
2012-06-13 06:25:44 51°14.189 2°55.37 16.9952 0.059881 0.363601 -2.458615
2012-06-13 06:25:49 51°14.2 2°55.36 16.9891 0.059881 0.363608 -2.458615
2012-06-13 06:25:54 51°14.211 2°55.35 16.9897 0.059881 0.363608 -2.458615
2012-06-13 06:26:00 51°14.224 2°55.337 16.9904 0.059881 0.363608 -2.458615
2012-06-13 06:26:05 51°14.236 2°55.326 16.9948 0.059881 0.363608 -2.458615
2012-06-13 06:26:09 51°14.244 2°55.317 16.9936 0.059881 0.363615 -2.458615
2012-06-13 06:26:14 51°14.256 2°55.306 16.998 0.059881 0.363608 -2.458615
2012-06-13 06:26:19 51°14.268 2°55.295 17.0058 0.059881 0.363608 -2.458615
2012-06-13 06:26:24 51°14.279 2°55.284 16.9961 0.059881 0.363608 -2.458615
2012-06-13 06:26:29 51°14.291 2°55.272 16.99 0.059881 0.363608 -2.458615
2012-06-13 06:26:33 51°14.3 2°55.262 16.9825 0.059881 0.363608 -2.458615
2012-06-13 06:26:39 51°14.314 2°55.248 17.0001 0.059881 0.363601 -2.458615
2012-06-13 06:26:44 51°14.326 2°55.236 17.0008 0.059881 0.363601 -2.458615
2012-06-13 06:26:49 51°14.337 2°55.224 16.9911 0.059881 0.363608 -2.458615
2012-06-13 06:26:54 51°14.349 2°55.212 16.9916 0.059881 0.363608 -2.458615
2012-06-13 06:26:59 51°14.361 2°55.2 17.0023 0.059881 0.363608 -2.458615
2012-06-13 06:27:04 51°14.372 2°55.187 16.9996 0.059881 0.363615 -2.458615
2012-06-13 06:27:09 51°14.384 2°55.175 17.0041 0.059881 0.363615 -2.458615
2012-06-13 06:27:14 51°14.396 2°55.162 17.0077 0.059881 0.363623 -2.458615
2012-06-13 06:27:19 51°14.407 2°55.149 16.9932 0.059881 0.36363 -2.458615
2012-06-13 06:27:24 51°14.418 2°55.136 17.0041 0.059881 0.363623 -2.458615
2012-06-13 06:27:30 51°14.432 2°55.12 17.0095 0.059881 0.363623 -2.458615
2012-06-13 06:27:34 51°14.441 2°55.11 17.0096 0.059881 0.363623 -2.458615
2012-06-13 06:27:38 51°14.45 2°55.1 16.9994 0.059881 0.363623 -2.458615
2012-06-13 06:27:45 51°14.467 2°55.081 17.0041 0.059881 0.363623 -2.458615
2012-06-13 06:27:50 51°14.478 2°55.069 16.9897 0.059881 0.363623 -2.458615
2012-06-13 06:27:55 51°14.49 2°55.057 17.0096 0.059881 0.36363 -2.458615
2012-06-13 06:27:59 51°14.499 2°55.047 17.0122 0.059881 0.36363 -2.458615
2012-06-13 06:28:04 51°14.511 2°55.035 17.0091 0.059881 0.36363 -2.458615
2012-06-13 06:28:09 51°14.523 2°55.023 16.9989 0.059881 0.363638 -2.458615
2012-06-13 06:28:14 51°14.536 2°55.012 16.9993 0.059881 0.363638 -2.458615
2012-06-13 06:28:19 51°14.548 2°55.001 17.0175 0.059881 0.363645 -2.458615
2012-06-13 06:28:24 51°14.56 2°54.989 16.9935 0.059881 0.363645 -2.458615
2012-06-13 06:28:28 51°14.571 2°54.981 17.0053 0.059881 0.363645 -2.458615
2012-06-13 06:28:34 51°14.587 2°54.971 17.0035 0.059881 0.363645 -2.458615
2012-06-13 06:28:39 51°14.6 2°54.963 17.0006 0.059881 0.363638 -2.458615
2012-06-13 06:28:43 51°14.611 2°54.957 17.0213 0.059881 0.363645 -2.458615
2012-06-13 06:28:48 51°14.624 2°54.947 17.0215 0.059881 0.363645 -2.458615
2012-06-13 06:28:53 51°14.637 2°54.937 17.0145 0.059881 0.363645 -2.458615
2012-06-13 06:28:58 51°14.649 2°54.927 17.0168 0.059881 0.363645 -2.458615
2012-06-13 06:29:03 51°14.661 2°54.916 17.0183 0.059881 0.363645 -2.458615
2012-06-13 06:29:08 51°14.674 2°54.905 17.0075 0.059881 0.363645 -2.458615
2012-06-13 06:29:12 51°14.683 2°54.895 17.0064 0.059881 0.363645 -2.458615
2012-06-13 06:29:18 51°14.697 2°54.88 17.0199 0.059881 0.363645 -2.458615
2012-06-13 06:29:22 51°14.706 2°54.87 17.0092 0.059881 0.363652 -2.458615
2012-06-13 06:29:27 51°14.717 2°54.857 17.0052 0.059881 0.363652 -2.458615
2012-06-13 06:29:31 51°14.726 2°54.847 17.0127 0.059881 0.363652 -2.458615
2012-06-13 06:29:36 51°14.738 2°54.834 17.0226 0.059881 0.363652 -2.458615
2012-06-13 06:29:41 51°14.749 2°54.821 17.0115 0.059881 0.36366 -2.458615
2012-06-13 06:29:47 51°14.762 2°54.804 17.0209 0.059881 0.363652 -2.458615
2012-06-13 06:29:51 51°14.771 2°54.794 17.0116 0.059881 0.36366 -2.458615
2012-06-13 06:29:57 51°14.785 2°54.777 17.0138 0.059881 0.36366 -2.458615
2012-06-13 06:30:02 51°14.796 2°54.764 17.0183 0.059881 0.36366 -2.458615
2012-06-13 06:30:07 51°14.808 2°54.751 17.015 0.059881 0.363667 -2.458615
2012-06-13 06:30:12 51°14.82 2°54.739 17.0163 0.059881 0.363667 -2.458615
2012-06-13 06:30:16 51°14.829 2°54.729 17.0132 0.059881 0.363667 -2.458615
2012-06-13 06:30:21 51°14.841 2°54.715 17.0216 0.059881 0.363675 -2.458615
2012-06-13 06:30:26 51°14.852 2°54.702 17.0085 0.059881 0.363675 -2.458615
2012-06-13 06:30:31 51°14.864 2°54.689 17.0296 0.059881 0.363675 -2.458615
2012-06-13 06:30:36 51°14.876 2°54.677 17.0114 0.059881 0.363675 -2.458615
2012-06-13 06:30:41 51°14.887 2°54.665 17.0243 0.059881 0.363675 -2.458615
2012-06-13 06:30:46 51°14.899 2°54.653 17.0171 0.059881 0.363675 -2.458615
2012-06-13 06:30:51 51°14.91 2°54.64 17.033 0.059881 0.363682 -2.458615
2012-06-13 06:30:56 51°14.922 2°54.626 17.015 0.059881 0.363682 -2.458615
2012-06-13 06:31:00 51°14.93 2°54.614 17.0126 0.059881 0.363689 -2.458615
2012-06-13 06:31:05 51°14.941 2°54.601 17.0228 0.059881 0.363682 -2.458615
2012-06-13 06:31:11 51°14.956 2°54.587 17.0251 0.059881 0.363682 -2.458615
2012-06-13 06:31:16 51°14.968 2°54.576 17.0238 0.059881 0.363682 -2.458615
2012-06-13 06:31:20 51°14.978 2°54.567 17.025 0.059881 0.363682 -2.458615
2012-06-13 06:31:25 51°14.991 2°54.558 17.0072 0.059881 0.363682 -2.458615
2012-06-13 06:31:30 51°15.004 2°54.55 17.0169 0.059881 0.363682 -2.458615
2012-06-13 06:31:35 51°15.017 2°54.544 17.0211 0.059881 0.363682 -2.458615
2012-06-13 06:31:41 51°15.031 2°54.542 17.0273 0.059881 0.363689 -2.458615
2012-06-13 06:31:45 51°15.04 2°54.54 17.0356 0.059881 0.363697 -2.458615
2012-06-13 06:31:50 51°15.051 2°54.54 17.021 0.059881 0.363704 -2.458615
2012-06-13 06:31:55 51°15.061 2°54.541 17.0329 0.059881 0.363704 -2.458615
2012-06-13 06:32:01 51°15.071 2°54.544 17.0452 0.059881 0.363712 -2.458615
2012-06-13 06:32:05 51°15.077 2°54.546 17.0422 0.059881 0.363712 -2.458615
2012-06-13 06:32:11 51°15.086 2°54.55 17.0257 0.059881 0.363719 -2.458615
2012-06-13 06:32:16 51°15.093 2°54.554 16.596 0.059881 0.363823 -2.458615
2012-06-13 06:32:21 51°15.099 2°54.557 16.0292 0.059881 0.362142 -2.458615
2012-06-13 06:32:25 51°15.104 2°54.56 15.8001 0.059881 0.362142 -2.458615
2012-06-13 06:32:31 51°15.109 2°54.564 15.6098 0.059778 0.361499 -2.458615
2012-06-13 06:32:35 51°15.113 2°54.567 15.5519 0.059778 0.360159 -2.458615
2012-06-13 06:32:41 51°15.117 2°54.573 15.4955 0.06204 0.366951 -2.458615
2012-06-13 06:32:45 51°15.12 2°54.576 15.4639 0.509792 3.325908 -2.458615
2012-06-13 06:32:51 51°15.123 2°54.581 15.406 1.097719 7.587737 -2.458615
2012-06-13 06:32:56 51°15.125 2°54.585 15.3534 1.097719 7.587737 -2.458615
2012-06-13 06:33:01 51°15.127 2°54.588 15.3295 1.186843 8.286163 -2.458615
2012-06-13 06:33:05 51°15.128 2°54.591 15.3012 1.283095 9.042562 -2.458615
2012-06-13 06:33:11 51°15.13 2°54.594 15.2874 1.504008 10.794171 -2.458615
2012-06-13 06:33:16 51°15.131 2°54.597 15.2885 1.852122 13.574783 -2.458615
2012-06-13 06:33:21 51°15.131 2°54.599 15.252 1.956346 14.44334 -2.458615
2012-06-13 06:33:25 51°15.132 2°54.601 15.2583 1.956346 14.44334 -2.458615
2012-06-13 06:33:31 51°15.133 2°54.604 15.2471 2.823185 21.631389 -2.458615
2012-06-13 06:33:36 51°15.134 2°54.606 15.2437 3.176681 24.677655 -2.458615
2012-06-13 06:33:41 51°15.134 2°54.609 15.2369 3.484051 27.367502 -2.458615
2012-06-13 06:33:46 51°15.135 2°54.611 15.2251 3.625797 28.631282 -2.458615
2012-06-13 06:33:51 51°15.135 2°54.613 15.2189 3.745831 29.708914 -2.458615
2012-06-13 06:33:56 51°15.135 2°54.615 15.215 3.745831 29.708914 -2.458615
2012-06-13 06:34:01 51°15.136 2°54.618 15.2119 3.79203 30.134215 -2.458615
2012-06-13 06:34:06 51°15.136 2°54.621 15.2135 3.816685 30.365572 -2.458615
2012-06-13 06:34:11 51°15.137 2°54.624 15.2031 3.829427 30.490526 -2.458615
2012-06-13 06:34:16 51°15.138 2°54.63 15.2086 3.836058 30.558248 -2.458615
2012-06-13 06:34:21 51°15.139 2°54.635 15.205 3.843206 30.630621 -2.458615
2012-06-13 06:34:27 51°15.141 2°54.643 15.1939 3.843206 30.630621 -2.458615
2012-06-13 06:34:30 51°15.141 2°54.647 15.1968 3.858643 30.775321 -2.458615
2012-06-13 06:34:36 51°15.144 2°54.656 15.1913 3.868796 30.8726 -2.458615
2012-06-13 06:34:41 51°15.146 2°54.663 15.1826 3.881022 30.986426 -2.458615
2012-06-13 06:34:46 51°15.149 2°54.67 15.1799 3.886513 31.041113 -2.458615
2012-06-13 06:34:51 51°15.152 2°54.677 15.184 3.890451 31.079393 -2.458615
2012-06-13 06:34:56 51°15.155 2°54.684 15.1849 3.890451 31.079393 -2.458615
2012-06-13 06:35:01 51°15.159 2°54.69 15.1814 3.895424 31.127559 -2.458615
2012-06-13 06:35:06 51°15.163 2°54.696 15.1821 3.899154 31.164683 -2.458615
2012-06-13 06:35:11 51°15.168 2°54.701 15.1809 3.901226 31.187721 -2.458615
2012-06-13 06:35:15 51°15.171 2°54.705 15.177 3.904335 31.22065 -2.458615
2012-06-13 06:35:21 51°15.177 2°54.71 15.174 3.907754 31.254388 -2.458615
2012-06-13 06:35:27 51°15.184 2°54.714 15.1706 3.907754 31.254388 -2.458615
2012-06-13 06:35:32 51°15.189 2°54.716 15.1693 3.90848 31.262823 -2.458615
2012-06-13 06:35:37 51°15.194 2°54.717 15.1725 3.909101 31.270337 -2.458615
2012-06-13 06:35:42 51°15.199 2°54.717 15.1708 3.910863 31.286687 -2.458615
2012-06-13 06:35:46 51°15.203 2°54.717 15.1658 3.91221 31.300006 -2.458615
2012-06-13 06:35:51 51°15.208 2°54.716 15.1655 3.912106 31.301061 -2.458615
2012-06-13 06:35:57 51°15.213 2°54.713 15.1656 3.912106 31.301061 -2.458615
2012-06-13 06:36:01 51°15.217 2°54.711 15.1618 3.915007 31.328893 -2.458615
2012-06-13 06:36:06 51°15.221 2°54.707 15.1675 3.916458 31.343802 -2.458615
2012-06-13 06:36:11 51°15.224 2°54.703 15.1671 3.916354 31.343539 -2.458615
2012-06-13 06:36:16 51°15.228 2°54.698 15.1671 3.9148 31.331007 -2.458615
2012-06-13 06:36:21 51°15.231 2°54.692 15.1702 3.914904 31.333251 -2.458615
2012-06-13 06:36:25 51°15.234 2°54.685 15.1642 3.914904 31.333251 -2.458615
2012-06-13 06:36:30 51°15.237 2°54.677 15.1655 3.916044 31.344731 -2.458615
2012-06-13 06:36:36 51°15.242 2°54.666 15.1718 3.915836 31.344866 -2.458615
2012-06-13 06:36:41 51°15.247 2°54.656 15.1624 3.916769 31.35384 -2.458615
2012-06-13 06:36:46 51°15.251 2°54.646 15.1675 3.916044 31.347374 -2.458615
2012-06-13 06:36:51 51°15.257 2°54.635 15.1637 3.913764 31.327053 -2.458615
2012-06-13 06:36:56 51°15.262 2°54.625 15.1659 3.913764 31.327053 -2.458615
2012-06-13 06:37:01 51°15.268 2°54.614 15.1649 3.911588 31.307658 -2.458615
2012-06-13 06:37:06 51°15.274 2°54.604 15.1598 3.914179 31.331408 -2.458615
2012-06-13 06:37:10 51°15.28 2°54.595 15.1622 3.911692 31.308582 -2.458615
2012-06-13 06:37:15 51°15.287 2°54.585 15.163 3.912935 31.319664 -2.458615
2012-06-13 06:37:20 51°15.294 2°54.575 15.1578 3.910656 31.299346 -2.458615
2012-06-13 06:37:26 51°15.304 2°54.563 15.1576 3.910656 31.299346 -2.458615
2012-06-13 06:37:31 51°15.312 2°54.553 15.1565 3.910967 31.302777 -2.458615
2012-06-13 06:37:36 51°15.32 2°54.544 15.1582 3.913246 31.323756 -2.458615
2012-06-13 06:37:41 51°15.329 2°54.534 15.1561 3.91107 31.30502 -2.458615
2012-06-13 06:37:46 51°15.338 2°54.525 15.1615 3.914904 31.340516 -2.458615
2012-06-13 06:37:51 51°15.347 2°54.516 15.1541 3.914282 31.335634 -2.458615
2012-06-13 06:37:56 51°15.356 2°54.507 15.1528 3.914282 31.335634 -2.458615
2012-06-13 06:38:01 51°15.365 2°54.498 15.1548 3.913557 31.329828 -2.458615
2012-06-13 06:38:05 51°15.372 2°54.491 15.1566 3.91221 31.31914 -2.458615
2012-06-13 06:38:10 51°15.382 2°54.482 15.1508 3.911899 31.316369 -2.458615
2012-06-13 06:38:15 51°15.391 2°54.473 15.1535 3.916251 31.35583 -2.458615
2012-06-13 06:38:19 51°15.398 2°54.466 15.1533 3.915526 31.350024 -2.458615
2012-06-13 06:38:25 51°15.409 2°54.454 15.1563 3.915526 31.350024 -2.458615
2012-06-13 06:38:30 51°15.418 2°54.444 15.1472 3.915837 31.354118 -2.458615
2012-06-13 06:38:35 51°15.428 2°54.435 15.1483 3.915319 31.350159 -2.458615
2012-06-13 06:38:40 51°15.437 2°54.426 15.15 3.913764 31.336961 -2.458615
2012-06-13 06:38:45 51°15.446 2°54.417 15.1478 3.91449 31.344089 -2.458615
2012-06-13 06:38:51 51°15.458 2°54.406 15.1475 3.912521 31.327195 -2.458615
2012-06-13 06:38:55 51°15.465 2°54.399 15.151 3.912521 31.327195 -2.458615
2012-06-13 06:39:00 51°15.475 2°54.389 15.143 3.911278 31.316109 -2.458615
2012-06-13 06:39:06 51°15.486 2°54.378 15.1431 3.91335 31.335247 -2.458615
2012-06-13 06:39:11 51°15.496 2°54.368 15.1424 3.912625 31.32944 -2.458615
2012-06-13 06:39:15 51°15.504 2°54.361 15.1466 3.913039 31.334458 -2.458615
2012-06-13 06:39:19 51°15.511 2°54.353 15.1414 3.912521 31.330498 -2.458615
2012-06-13 06:39:25 51°15.522 2°54.341 15.1408 3.912521 31.330498 -2.458615
2012-06-13 06:39:31 51°15.533 2°54.329 15.1417 3.912314 31.329311 -2.458615
2012-06-13 06:39:35 51°15.54 2°54.321 15.1367 3.913454 31.340136 -2.458615
2012-06-13 06:39:40 51°15.549 2°54.31 15.1424 3.916562 31.369184 -2.458615
2012-06-13 06:39:45 51°15.558 2°54.301 15.1384 3.917391 31.37724 -2.458615
2012-06-13 06:39:51 51°15.569 2°54.289 15.1397 3.91708 31.374467 -2.458615
2012-06-13 06:39:55 51°15.577 2°54.281 15.1387 3.91708 31.374467 -2.458615
2012-06-13 06:40:00 51°15.586 2°54.271 15.1367 3.918945 31.391767 -2.458615
2012-06-13 06:40:05 51°15.594 2°54.261 15.1351 3.920603 31.40722 -2.458615
2012-06-13 06:40:10 51°15.603 2°54.25 15.1346 3.92081 31.410394 -2.458615
2012-06-13 06:40:15 51°15.612 2°54.24 15.141 3.922468 31.42585 -2.458615
2012-06-13 06:40:19 51°15.619 2°54.232 15.1432 3.924023 31.441045 -2.458615
2012-06-13 06:40:25 51°15.629 2°54.22 15.1385 3.924023 31.441045 -2.458615
2012-06-13 06:40:30 51°15.638 2°54.209 15.1405 3.924023 31.441045 -2.458615
2012-06-13 06:40:35 51°15.646 2°54.199 15.1388 3.92423 31.443558 -2.458615
2012-06-13 06:40:40 51°15.655 2°54.188 15.1432 3.923712 31.439598 -2.458615
2012-06-13 06:40:45 51°15.663 2°54.177 15.1405 3.926302 31.462717 -2.458615
2012-06-13 06:40:51 51°15.673 2°54.163 15.1411 3.925784 31.45743 -2.458615
2012-06-13 06:40:55 51°15.679 2°54.154 15.1418 3.925784 31.45743 -2.458615
2012-06-13 06:41:00 51°15.687 2°54.142 15.1437 3.923712 31.438935 -2.458615
2012-06-13 06:41:06 51°15.696 2°54.127 15.1418 3.92682 31.466014 -2.458615
2012-06-13 06:41:11 51°15.704 2°54.115 15.144 3.92537 31.453067 -2.458615
2012-06-13 06:41:15 51°15.71 2°54.105 15.1367 3.921225 31.415417 -2.458615
2012-06-13 06:41:19 51°15.715 2°54.096 15.1335 3.922986 31.431136 -2.458615
2012-06-13 06:41:25 51°15.724 2°54.081 15.1314 3.922986 31.431136 -2.458615
2012-06-13 06:41:31 51°15.733 2°54.066 15.1373 3.916459 31.37223 -2.458615
2012-06-13 06:41:35 51°15.739 2°54.055 15.1356 3.915422 31.362325 -2.458615
2012-06-13 06:41:40 51°15.746 2°54.042 15.1375 3.919256 31.396527 -2.458615
2012-06-13 06:41:45 51°15.753 2°54.029 15.1326 3.922883 31.428885 -2.458615
2012-06-13 06:41:51 51°15.762 2°54.014 15.1359 3.921432 31.417929 -2.458615
2012-06-13 06:41:55 51°15.767 2°54.003 15.1304 3.921432 31.417929 -2.458615
2012-06-13 06:42:00 51°15.774 2°53.99 15.1299 3.921536 31.420842 -2.458615
2012-06-13 06:42:05 51°15.781 2°53.976 15.1315 3.91936 31.40275 -2.458615
2012-06-13 06:42:10 51°15.788 2°53.963 15.1288 3.917495 31.385446 -2.458615
2012-06-13 06:42:15 51°15.795 2°53.95 15.131 3.915733 31.36973 -2.458615
2012-06-13 06:42:19 51°15.8 2°53.939 15.1308 3.914283 31.357449 -2.458615
2012-06-13 06:42:25 51°15.808 2°53.924 15.1301 3.914283 31.357449 -2.458615
2012-06-13 06:42:30 51°15.815 2°53.91 15.1259 3.916666 31.378712 -2.458615
2012-06-13 06:42:35 51°15.822 2°53.897 15.1229 3.923919 31.444764 -2.458615
2012-06-13 06:42:40 51°15.829 2°53.885 15.1243 3.922986 31.437104 -2.458615
2012-06-13 06:42:45 51°15.835 2°53.871 15.1198 3.922261 31.431957 -2.458615
2012-06-13 06:42:50 51°15.842 2°53.858 15.1208 3.921018 31.420859 -2.458615
2012-06-13 06:42:55 51°15.849 2°53.845 15.1178 3.921018 31.420859 -2.458615
2012-06-13 06:43:00 51°15.856 2°53.832 15.1163 3.920189 31.414124 -2.458615
2012-06-13 06:43:05 51°15.864 2°53.82 15.1185 3.918842 31.402765 -2.458615
2012-06-13 06:43:11 51°15.872 2°53.804 15.1178 3.91822 31.398542 -2.458615
2012-06-13 06:43:15 51°15.878 2°53.794 15.1153 3.917702 31.395243 -2.458615
2012-06-13 06:43:20 51°15.885 2°53.78 15.1161 3.915941 31.380847 -2.458615
2012-06-13 06:43:25 51°15.893 2°53.767 15.1209 3.915941 31.380847 -2.458615
2012-06-13 06:43:31 51°15.901 2°53.752 15.115 3.916459 31.386134 -2.458615
2012-06-13 06:43:35 51°15.907 2°53.742 15.1116 3.914905 31.374249 -2.458615
2012-06-13 06:43:40 51°15.914 2°53.729 15.1065 3.914283 31.369362 -2.458615
2012-06-13 06:43:45 51°15.922 2°53.717 15.1095 3.913454 31.362626 -2.458615
2012-06-13 06:43:51 51°15.931 2°53.702 15.1107 3.912936 31.358665 -2.458615
2012-06-13 06:43:55 51°15.937 2°53.692 15.1092 3.912936 31.358665 -2.458615
2012-06-13 06:44:00 51°15.945 2°53.68 15.1054 3.912211 31.352853 -2.458615
2012-06-13 06:44:05 51°15.952 2°53.668 15.1022 3.911382 31.345455 -2.458615
2012-06-13 06:44:11 51°15.961 2°53.653 15.1016 3.911174 31.344267 -2.458615
2012-06-13 06:44:15 51°15.967 2°53.644 15.1031 3.910864 31.34414 -2.458615
2012-06-13 06:44:19 51°15.973 2°53.634 15.0976 3.91076 31.343877 -2.458615
2012-06-13 06:44:25 51°15.982 2°53.619 15.096 3.91076 31.343877 -2.458615
2012-06-13 06:44:31 51°15.991 2°53.604 15.097 3.910035 31.338726 -2.458615
2012-06-13 06:44:35 51°15.997 2°53.595 15.0933 3.910035 31.34005 -2.458615
2012-06-13 06:44:40 51°16.005 2°53.583 15.092 3.909724 31.338599 -2.458615
2012-06-13 06:44:45 51°16.012 2°53.57 15.0879 3.909517 31.338072 -2.458615
2012-06-13 06:44:51 51°16.022 2°53.556 15.0912 3.908066 31.327108 -2.458615
2012-06-13 06:44:55 51°16.028 2°53.546 15.0822 3.908066 31.327108 -2.458615
2012-06-13 06:45:00 51°16.036 2°53.534 15.0805 3.909517 31.341381 -2.458615
2012-06-13 06:45:06 51°16.045 2°53.519 15.0796 3.910139 31.348255 -2.458615
2012-06-13 06:45:11 51°16.053 2°53.507 15.0762 3.909517 31.344029 -2.458615
2012-06-13 06:45:15 51°16.059 2°53.497 15.0766 3.908481 31.336102 -2.458615
2012-06-13 06:45:19 51°16.065 2°53.487 15.0739 3.908895 31.34245 -2.458615
2012-06-13 06:45:25 51°16.074 2°53.472 15.0707 3.908895 31.34245 -2.458615
2012-06-13 06:45:31 51°16.083 2°53.457 15.0686 3.908584 31.341661 -2.458615
2012-06-13 06:45:35 51°16.089 2°53.447 15.0684 3.909517 31.352637 -2.458615
2012-06-13 06:45:40 51°16.097 2°53.434 15.068 3.908688 31.347221 -2.458615
2012-06-13 06:45:45 51°16.105 2°53.421 15.0628 3.909931 31.359651 -2.458615
2012-06-13 06:45:50 51°16.112 2°53.409 15.0693 3.910864 31.369969 -2.458615
2012-06-13 06:45:55 51°16.119 2°53.396 15.0627 3.910864 31.369969 -2.458615
2012-06-13 06:46:00 51°16.127 2°53.383 15.0594 3.910968 31.373547 -2.458615
2012-06-13 06:46:05 51°16.134 2°53.371 15.0571 3.912004 31.38413 -2.458615
2012-06-13 06:46:10 51°16.142 2°53.358 15.0538 3.911589 31.382417 -2.458615
2012-06-13 06:46:15 51°16.149 2°53.344 15.0509 3.912004 31.387447 -2.458615
2012-06-13 06:46:20 51°16.156 2°53.332 15.056 3.912108 31.3897 -2.458615
2012-06-13 06:46:25 51°16.164 2°53.319 15.0478 3.912108 31.3897 -2.458615
2012-06-13 06:46:31 51°16.172 2°53.303 15.0471 3.912004 31.389438 -2.458615
2012-06-13 06:46:35 51°16.178 2°53.292 15.0454 3.911279 31.384947 -2.458615
2012-06-13 06:46:39 51°16.184 2°53.282 15.0387 3.910968 31.384823 -2.458615
2012-06-13 06:46:45 51°16.193 2°53.266 15.0349 3.910657 31.384699 -2.458615
2012-06-13 06:46:50 51°16.2 2°53.252 15.0415 3.91045 31.384838 -2.458615
2012-06-13 06:46:55 51°16.207 2°53.239 15.038 3.91045 31.384838 -2.458615
2012-06-13 06:47:00 51°16.214 2°53.225 15.0356 3.910657 31.388018 -2.458615
2012-06-13 06:47:05 51°16.221 2°53.213 15.0356 3.909207 31.377042 -2.458615
2012-06-13 06:47:11 51°16.23 2°53.197 15.0335 3.909725 31.383664 -2.458615
2012-06-13 06:47:15 51°16.236 2°53.188 15.0357 3.910139 31.390025 -2.458615
2012-06-13 06:47:20 51°16.244 2°53.176 15.0332 3.910036 31.391755 -2.458615
2012-06-13 06:47:26 51°16.254 2°53.162 15.0338 3.910036 31.391755 -2.458615
2012-06-13 06:47:31 51°16.262 2°53.151 15.0338 3.910865 31.400495 -2.458615
2012-06-13 06:47:35 51°16.268 2°53.141 15.0324 3.911175 31.403939 -2.458615
2012-06-13 06:47:39 51°16.275 2°53.132 15.0359 3.911383 31.407121 -2.458615
2012-06-13 06:47:45 51°16.285 2°53.119 15.0328 3.911901 31.412418 -2.458615
2012-06-13 06:47:51 51°16.296 2°53.107 15.0337 3.912626 31.419569 -2.458615
2012-06-13 06:47:55 51°16.304 2°53.099 15.0331 3.912626 31.419569 -2.458615
2012-06-13 06:48:00 51°16.313 2°53.089 15.0341 3.913973 31.432281 -2.458615
2012-06-13 06:48:05 51°16.322 2°53.08 15.0376 3.913973 31.432946 -2.458615
2012-06-13 06:48:11 51°16.333 2°53.069 15.0385 3.914388 31.436653 -2.458615
2012-06-13 06:48:15 51°16.341 2°53.061 15.0349 3.914906 31.441287 -2.458615
2012-06-13 06:48:20 51°16.35 2°53.052 15.0411 3.915424 31.446587 -2.458615
2012-06-13 06:48:25 51°16.359 2°53.043 15.0391 3.915424 31.446587 -2.458615
2012-06-13 06:48:31 51°16.371 2°53.032 15.0387 3.915631 31.44844 -2.458615
2012-06-13 06:48:35 51°16.378 2°53.024 15.0396 3.915942 31.451221 -2.458615
2012-06-13 06:48:39 51°16.386 2°53.017 15.039 3.915631 31.447775 -2.458615
2012-06-13 06:48:45 51°16.397 2°53.006 15.0401 3.915942 31.449224 -2.458615
2012-06-13 06:48:51 51°16.409 2°52.994 15.0437 3.915942 31.449224 -2.458615
2012-06-13 06:48:55 51°16.416 2°52.987 15.0438 3.915942 31.449224 -2.458615
2012-06-13 06:49:00 51°16.426 2°52.977 15.0424 3.916253 31.451339 -2.458615
2012-06-13 06:49:05 51°16.435 2°52.968 15.0453 3.915113 31.441145 -2.458615
2012-06-13 06:49:10 51°16.445 2°52.959 15.0438 3.916253 31.450674 -2.458615
2012-06-13 06:49:15 51°16.455 2°52.949 15.0495 3.917081 31.458088 -2.458615
2012-06-13 06:49:20 51°16.464 2°52.94 15.049 3.917185 31.458349 -2.458615
2012-06-13 06:49:25 51°16.474 2°52.932 15.0446 3.917185 31.458349 -2.458615
2012-06-13 06:49:30 51°16.485 2°52.925 15.0443 3.916563 31.451458 -2.458615
2012-06-13 06:49:35 51°16.495 2°52.917 15.0439 3.916978 31.454499 -2.458615
2012-06-13 06:49:40 51°16.505 2°52.908 15.0425 3.917289 31.456614 -2.458615
2012-06-13 06:49:46 51°16.517 2°52.899 15.0433 3.917289 31.455283 -2.458615
2012-06-13 06:49:50 51°16.525 2°52.893 15.0455 3.917703 31.458324 -2.458615
2012-06-13 06:49:55 51°16.536 2°52.885 15.043 3.917703 31.458324 -2.458615
2012-06-13 06:50:00 51°16.546 2°52.878 15.0418 3.915631 31.439792 -2.458615
2012-06-13 06:50:05 51°16.557 2°52.872 15.0418 3.917392 31.455544 -2.458615
2012-06-13 06:50:10 51°16.568 2°52.865 15.038 3.916252 31.446017 -2.458615
2012-06-13 06:50:15 51°16.578 2°52.858 15.041 3.91791 31.461509 -2.458615
2012-06-13 06:50:20 51°16.589 2°52.851 15.0354 3.917185 31.455022 -2.458615
2012-06-13 06:50:25 51°16.599 2°52.844 15.0355 3.917185 31.455022 -2.458615
2012-06-13 06:50:30 51°16.61 2°52.838 15.0326 3.917496 31.457802 -2.458615
2012-06-13 06:50:35 51°16.621 2°52.831 15.031 3.916874 31.452907 -2.458615
2012-06-13 06:50:40 51°16.631 2°52.825 15.0293 3.918843 31.471181 -2.458615
2012-06-13 06:50:45 51°16.642 2°52.818 15.028 3.91905 31.4737 -2.458615
2012-06-13 06:50:51 51°16.655 2°52.81 15.0235 3.91905 31.474366 -2.458615
2012-06-13 06:50:55 51°16.663 2°52.805 15.0221 3.91905 31.474366 -2.458615
2012-06-13 06:50:59 51°16.672 2°52.799 15.0265 3.919465 31.479405 -2.458615
2012-06-13 06:51:05 51°16.684 2°52.791 15.0219 3.92019 31.487226 -2.458615
2012-06-13 06:51:11 51°16.697 2°52.782 15.0186 3.920604 31.492933 -2.458615
2012-06-13 06:51:15 51°16.705 2°52.776 15.0168 3.921019 31.497974 -2.458615
2012-06-13 06:51:20 51°16.716 2°52.769 15.0157 3.922366 31.512027 -2.458615
2012-06-13 06:51:25 51°16.726 2°52.761 15.0142 3.922366 31.512027 -2.458615
2012-06-13 06:51:31 51°16.738 2°52.753 15.0135 3.923506 31.523561 -2.458615
2012-06-13 06:51:35 51°16.746 2°52.746 15.0113 3.924749 31.536691 -2.458615
2012-06-13 06:51:40 51°16.757 2°52.739 15.0121 3.925267 31.541996 -2.458615
2012-06-13 06:51:46 51°16.769 2°52.73 15.0101 3.927029 31.559099 -2.458615
2012-06-13 06:51:50 51°16.777 2°52.724 15.0085 3.927651 31.566669 -2.458615
2012-06-13 06:51:55 51°16.787 2°52.716 15.0049 3.927651 31.566669 -2.458615
2012-06-13 06:51:59 51°16.795 2°52.71 15.0032 3.928272 31.573572 -2.458615
2012-06-13 06:52:05 51°16.807 2°52.7 15.0015 3.929723 31.588566 -2.458615
2012-06-13 06:52:10 51°16.818 2°52.692 14.9973 3.930034 31.592687 -2.458615
2012-06-13 06:52:15 51°16.828 2°52.684 14.9931 3.930967 31.601708 -2.458615
2012-06-13 06:52:20 51°16.838 2°52.676 14.9917 3.930967 31.603046 -2.458615
2012-06-13 06:52:25 51°16.848 2°52.668 14.9901 3.930967 31.603046 -2.458615
2012-06-13 06:52:31 51°16.86 2°52.658 14.9858 3.931588 31.609952 -2.458615
2012-06-13 06:52:35 51°16.868 2°52.651 14.9855 3.932728 31.62217 -2.458615
2012-06-13 06:52:40 51°16.878 2°52.643 14.9803 3.932935 31.626036 -2.458615
2012-06-13 06:52:45 51°16.888 2°52.635 14.9766 3.933246 31.6315 -2.458615
2012-06-13 06:52:51 51°16.9 2°52.625 14.9773 3.933454 31.635367 -2.458615
2012-06-13 06:52:55 51°16.908 2°52.619 14.9772 3.933454 31.635367 -2.458615
2012-06-13 06:52:59 51°16.916 2°52.611 14.9744 3.934283 31.645476 -2.458615
2012-06-13 06:53:05 51°16.928 2°52.601 14.9746 3.935526 31.659301 -2.458615
2012-06-13 06:53:11 51°16.94 2°52.59 14.9719 3.935008 31.65667 -2.458615
2012-06-13 06:53:15 51°16.948 2°52.584 14.9709 3.935319 31.66214 -2.458615
2012-06-13 06:53:20 51°16.958 2°52.575 14.9691 3.936044 31.671326 -2.458615
2012-06-13 06:53:25 51°16.968 2°52.566 14.9659 3.936044 31.671326 -2.458615
2012-06-13 06:53:30 51°16.978 2°52.558 14.9662 3.936251 31.674526 -2.458615
2012-06-13 06:53:35 51°16.988 2°52.549 14.9649 3.937391 31.686759 -2.458615
2012-06-13 06:53:40 51°16.998 2°52.54 14.9612 3.938946 31.701366 -2.458615
2012-06-13 06:53:45 51°17.008 2°52.532 14.9606 3.940086 31.713603 -2.458615
2012-06-13 06:53:50 51°17.018 2°52.524 14.96 3.941433 31.727028 -2.458615
2012-06-13 06:53:55 51°17.028 2°52.515 14.9594 3.941433 31.727028 -2.458615
2012-06-13 06:54:00 51°17.038 2°52.507 14.957 3.943816 31.749749 -2.458615
2012-06-13 06:54:05 51°17.048 2°52.499 14.9593 3.946614 31.776866 -2.458615
2012-06-13 06:54:10 51°17.058 2°52.491 14.9571 3.94879 31.797062 -2.458615
2012-06-13 06:54:15 51°17.069 2°52.483 14.9577 3.951795 31.82605 -2.458615
2012-06-13 06:54:21 51°17.081 2°52.475 14.9585 3.952728 31.835769 -2.458615
2012-06-13 06:54:25 51°17.089 2°52.469 14.9572 3.952728 31.835769 -2.458615
2012-06-13 06:54:30 51°17.1 2°52.461 14.959 3.955836 31.865697 -2.458615
2012-06-13 06:54:35 51°17.11 2°52.454 14.9595 3.958841 31.893349 -2.458615
2012-06-13 06:54:40 51°17.12 2°52.447 14.9623 3.962468 31.926588 -2.458615
2012-06-13 06:54:46 51°17.133 2°52.438 14.9613 3.964126 31.942153 -2.458615
2012-06-13 06:54:51 51°17.143 2°52.431 14.9612 3.967546 31.972862 -2.458615
2012-06-13 06:54:55 51°17.152 2°52.426 14.9634 3.967546 31.972862 -2.458615
2012-06-13 06:54:59 51°17.161 2°52.421 14.959 3.970758 32.002394 -2.458615
2012-06-13 06:55:05 51°17.174 2°52.412 14.9598 3.972624 32.01847 -2.458615
2012-06-13 06:55:10 51°17.187 2°52.404 14.9589 3.976665 32.054776 -2.458615
2012-06-13 06:55:15 51°17.2 2°52.395 14.9596 3.977287 32.060362 -2.458615
2012-06-13 06:55:20 51°17.213 2°52.386 14.9601 3.979774 32.081348 -2.458615
2012-06-13 06:55:25 51°17.227 2°52.377 14.9577 3.979774 32.081348 -2.458615
2012-06-13 06:55:31 51°17.244 2°52.366 14.9615 3.981328 32.095315 -2.458615
2012-06-13 06:55:35 51°17.256 2°52.359 14.9606 3.984956 32.127908 -2.458615
2012-06-13 06:55:40 51°17.271 2°52.349 14.9579 3.986406 32.141629 -2.458615
2012-06-13 06:55:45 51°17.286 2°52.34 14.9622 3.989101 32.166528 -2.458615
2012-06-13 06:55:50 51°17.301 2°52.329 14.9594 3.98993 32.173981 -2.458615
2012-06-13 06:55:55 51°17.317 2°52.32 14.9631 3.98993 32.173981 -2.458615
2012-06-13 06:56:00 51°17.332 2°52.309 14.9602 3.991795 32.190749 -2.458615
2012-06-13 06:56:05 51°17.347 2°52.299 14.964 3.99335 32.204724 -2.458615
2012-06-13 06:56:10 51°17.363 2°52.289 14.9613 3.993661 32.206836 -2.458615
2012-06-13 06:56:15 51°17.378 2°52.278 14.9621 3.993246 32.203109 -2.458615
2012-06-13 06:56:20 51°17.393 2°52.267 14.9654 3.99449 32.214289 -2.458615
2012-06-13 06:56:25 51°17.407 2°52.254 14.9636 3.99449 32.214289 -2.458615
2012-06-13 06:56:30 51°17.422 2°52.242 14.9634 3.994179 32.210811 -2.458615
2012-06-13 06:56:35 51°17.436 2°52.23 14.9614 3.995008 32.218264 -2.458615
2012-06-13 06:56:40 51°17.451 2°52.217 14.9648 3.994697 32.214786 -2.458615
2012-06-13 06:56:45 51°17.465 2°52.204 14.9609 3.994282 32.211059 -2.458615
2012-06-13 06:56:50 51°17.48 2°52.191 14.9638 3.994593 32.213854 -2.458615
2012-06-13 06:56:55 51°17.494 2°52.179 14.9613 3.994593 32.213854 -2.458615
2012-06-13 06:57:00 51°17.508 2°52.165 14.9566 3.99449 32.212239 -2.458615
2012-06-13 06:57:05 51°17.523 2°52.152 14.9521 3.992935 32.198265 -2.458615
2012-06-13 06:57:10 51°17.537 2°52.138 14.9533 3.994697 32.214102 -2.458615
2012-06-13 06:57:15 51°17.551 2°52.125 14.9492 3.995111 32.217146 -2.458615
2012-06-13 06:57:20 51°17.565 2°52.111 14.9482 3.994282 32.210376 -2.458615
2012-06-13 06:57:25 51°17.579 2°52.096 14.9443 3.994282 32.210376 -2.458615
2012-06-13 06:57:31 51°17.595 2°52.078 14.9427 3.995111 32.218513 -2.458615
2012-06-13 06:57:35 51°17.606 2°52.067 14.9408 3.99563 32.224538 -2.458615
2012-06-13 06:57:40 51°17.621 2°52.054 14.9377 3.996873 32.237088 -2.458615
2012-06-13 06:57:45 51°17.634 2°52.039 14.9376 3.998635 32.254982 -2.458615
2012-06-13 06:57:50 51°17.648 2°52.024 14.936 3.999153 32.261696 -2.458615
2012-06-13 06:57:55 51°17.661 2°52.009 14.9364 3.999153 32.261696 -2.458615
2012-06-13 06:58:00 51°17.674 2°51.993 14.9369 3.999982 32.271207 -2.458615
2012-06-13 06:58:05 51°17.688 2°51.978 14.9388 4.000915 32.281652 -2.458615
2012-06-13 06:58:10 51°17.7 2°51.962 14.9399 4.002055 32.293963 -2.458615
2012-06-13 06:58:15 51°17.713 2°51.946 14.9427 4.002988 32.304411 -2.458615
2012-06-13 06:58:20 51°17.726 2°51.93 14.9452 4.00506 32.325119 -2.458615
2012-06-13 06:58:25 51°17.739 2°51.914 14.9431 4.00506 32.325119 -2.458615
2012-06-13 06:58:30 51°17.752 2°51.899 14.9468 4.00475 32.323008 -2.458615
2012-06-13 06:58:35 51°17.766 2°51.884 14.9466 4.00589 32.334639 -2.458615
2012-06-13 06:58:39 51°17.776 2°51.872 14.9489 4.004439 32.320896 -2.458615
2012-06-13 06:58:45 51°17.793 2°51.855 14.9486 4.00475 32.323008 -2.458615
2012-06-13 06:58:50 51°17.806 2°51.84 14.9522 4.004231 32.317659 -2.458615
2012-06-13 06:58:55 51°17.82 2°51.825 14.9521 4.004231 32.317659 -2.458615
2012-06-13 06:59:00 51°17.833 2°51.811 14.9514 4.003091 32.306029 -2.458615
2012-06-13 06:59:05 51°17.848 2°51.797 14.9499 4.003195 32.306276 -2.458615
2012-06-13 06:59:11 51°17.864 2°51.78 14.9516 4.001122 32.285572 -2.458615
2012-06-13 06:59:15 51°17.876 2°51.769 14.9518 4.001226 32.285819 -2.458615
2012-06-13 06:59:20 51°17.89 2°51.755 14.9531 3.999879 32.272329 -2.458615
2012-06-13 06:59:25 51°17.904 2°51.741 14.9516 3.999879 32.272329 -2.458615
2012-06-13 06:59:31 51°17.92 2°51.723 14.9453 3.998324 32.256978 -2.458615
2012-06-13 06:59:35 51°17.931 2°51.711 14.9446 3.997599 32.249769 -2.458615
2012-06-13 06:59:39 51°17.942 2°51.7 14.9436 3.996148 32.23672 -2.458615
2012-06-13 06:59:45 51°17.958 2°51.682 14.9453 3.995319 32.229264 -2.458615
2012-06-13 06:59:51 51°17.974 2°51.663 14.9375 3.994179 32.219013 -2.458615
2012-06-13 06:59:55 51°17.985 2°51.651 14.9406 3.994179 32.219013 -2.458615
2012-06-13 07:00:00 51°17.998 2°51.636 14.9366 3.992313 32.202239 -2.458615
2012-06-13 07:00:05 51°18.012 2°51.621 14.9342 3.990655 32.188013 -2.458615
2012-06-13 07:00:11 51°18.028 2°51.604 14.9344 3.990759 32.190994 -2.458615
2012-06-13 07:00:15 51°18.039 2°51.593 14.9301 3.990241 32.187701 -2.458615
2012-06-13 07:00:20 51°18.054 2°51.579 14.9271 3.989308 32.179998 -2.458615
2012-06-13 07:00:25 51°18.068 2°51.566 14.9298 3.989308 32.179998 -2.458615
2012-06-13 07:00:30 51°18.082 2°51.552 14.9279 3.988997 32.178568 -2.458615
2012-06-13 07:00:35 51°18.096 2°51.539 14.9257 3.988272 32.172728 -2.458615
2012-06-13 07:00:39 51°18.107 2°51.527 14.9259 3.988168 32.173844 -2.458615
2012-06-13 07:00:45 51°18.124 2°51.51 14.9269 3.988168 32.175893 -2.458615
2012-06-13 07:00:50 51°18.138 2°51.496 14.925 3.988168 32.177943 -2.458615
2012-06-13 07:00:55 51°18.152 2°51.482 14.9261 3.988168 32.177943 -2.458615
2012-06-13 07:01:00 51°18.165 2°51.467 14.9239 3.987858 32.177196 -2.458615
2012-06-13 07:01:05 51°18.179 2°51.452 14.9255 3.988479 32.183472 -2.458615
2012-06-13 07:01:10 51°18.192 2°51.438 14.9299 3.98765 32.177381 -2.458615
2012-06-13 07:01:15 51°18.206 2°51.423 14.9271 3.987961 32.181544 -2.458615
2012-06-13 07:01:20 51°18.22 2°51.408 14.9301 3.987443 32.176883 -2.458615
2012-06-13 07:01:25 51°18.235 2°51.394 14.9265 3.987443 32.176883 -2.458615
2012-06-13 07:01:30 51°18.249 2°51.381 14.9295 3.988272 32.185024 -2.458615
2012-06-13 07:01:35 51°18.263 2°51.368 14.9266 3.987547 32.179182 -2.458615
2012-06-13 07:01:40 51°18.277 2°51.354 14.9264 3.987443 32.178933 -2.458615
2012-06-13 07:01:46 51°18.294 2°51.338 14.9296 3.987858 32.181979 -2.458615
2012-06-13 07:01:51 51°18.307 2°51.324 14.9316 3.986614 32.170109 -2.458615
2012-06-13 07:01:55 51°18.318 2°51.314 14.93 3.986614 32.170109 -2.458615
2012-06-13 07:02:00 51°18.332 2°51.3 14.9287 3.987236 32.175702 -2.458615
2012-06-13 07:02:05 51°18.346 2°51.286 14.9299 3.986925 32.172222 -2.458615
2012-06-13 07:02:11 51°18.363 2°51.27 14.9295 3.987754 32.17968 -2.458615
2012-06-13 07:02:15 51°18.374 2°51.258 14.9334 3.98765 32.178748 -2.458615
2012-06-13 07:02:20 51°18.388 2°51.244 14.9344 3.986718 32.169675 -2.458615
2012-06-13 07:02:25 51°18.402 2°51.231 14.9353 3.986718 32.169675 -2.458615
2012-06-13 07:02:31 51°18.419 2°51.214 14.9361 3.986407 32.166196 -2.458615
2012-06-13 07:02:35 51°18.43 2°51.203 14.9332 3.985992 32.162467 -2.458615
2012-06-13 07:02:39 51°18.442 2°51.192 14.9355 3.9862 32.164331 -2.458615
2012-06-13 07:02:45 51°18.458 2°51.175 14.9382 3.986925 32.170856 -2.458615
2012-06-13 07:02:50 51°18.472 2°51.161 14.9401 3.986096 32.162033 -2.458615
2012-06-13 07:02:55 51°18.485 2°51.145 14.9426 3.986096 32.162033 -2.458615
2012-06-13 07:03:00 51°18.499 2°51.13 14.9457 3.986614 32.166011 -2.458615
2012-06-13 07:03:05 51°18.512 2°51.115 14.945 3.98651 32.164396 -2.458615
2012-06-13 07:03:10 51°18.525 2°51.1 14.9452 3.986718 32.165577 -2.458615
2012-06-13 07:03:15 51°18.539 2°51.085 14.9473 3.987339 32.171169 -2.458615
2012-06-13 07:03:20 51°18.553 2°51.071 14.9478 3.987961 32.175395 -2.458615
2012-06-13 07:03:25 51°18.567 2°51.056 14.9485 3.987961 32.175395 -2.458615
2012-06-13 07:03:30 51°18.581 2°51.042 14.9494 3.987961 32.173346 -2.458615
2012-06-13 07:03:35 51°18.595 2°51.027 14.9463 3.988894 32.180368 -2.458615
2012-06-13 07:03:40 51°18.609 2°51.013 14.9478 3.989516 32.184594 -2.458615
2012-06-13 07:03:45 51°18.623 2°50.999 14.9495 3.991899 32.204662 -2.458615
2012-06-13 07:03:50 51°18.636 2°50.984 14.9478 3.992728 32.210751 -2.458615
2012-06-13 07:03:55 51°18.65 2°50.969 14.9482 3.992728 32.210751 -2.458615
2012-06-13 07:04:00 51°18.663 2°50.954 14.9471 3.99335 32.21566 -2.458615
2012-06-13 07:04:05 51°18.677 2°50.939 14.9445 3.99449 32.224544 -2.458615
2012-06-13 07:04:11 51°18.693 2°50.921 14.9443 3.996355 32.241321 -2.458615
2012-06-13 07:04:15 51°18.704 2°50.909 14.9451 3.99677 32.245049 -2.458615
2012-06-13 07:04:20 51°18.717 2°50.894 14.9461 3.996873 32.245981 -2.458615
2012-06-13 07:04:25 51°18.73 2°50.879 14.9442 3.996873 32.245981 -2.458615
2012-06-13 07:04:31 51°18.746 2°50.861 14.9433 3.996873 32.245981 -2.458615
2012-06-13 07:04:35 51°18.756 2°50.849 14.9449 3.996666 32.244117 -2.458615
2012-06-13 07:04:40 51°18.77 2°50.834 14.944 3.99563 32.235481 -2.458615
2012-06-13 07:04:45 51°18.784 2°50.819 14.9463 3.995733 32.237097 -2.458615
2012-06-13 07:04:50 51°18.798 2°50.805 14.9413 3.994386 32.22498 -2.458615
2012-06-13 07:04:55 51°18.812 2°50.791 14.9433 3.994386 32.22498 -2.458615
2012-06-13 07:05:00 51°18.826 2°50.778 14.9419 3.99449 32.226596 -2.458615
2012-06-13 07:05:05 51°18.84 2°50.765 14.9425 3.994386 32.225664 -2.458615
2012-06-13 07:05:10 51°18.855 2°50.752 14.941 3.993868 32.221004 -2.458615
2012-06-13 07:05:15 51°18.87 2°50.739 14.939 3.993557 32.218207 -2.458615
2012-06-13 07:05:20 51°18.885 2°50.727 14.9376 3.994075 32.222868 -2.458615
2012-06-13 07:05:25 51°18.899 2°50.714 14.9369 3.994075 32.222868 -2.458615
2012-06-13 07:05:30 51°18.914 2°50.7 14.9335 3.993764 32.220755 -2.458615
2012-06-13 07:05:35 51°18.928 2°50.687 14.9397 3.993868 32.221687 -2.458615
2012-06-13 07:05:40 51°18.942 2°50.673 14.9342 3.993557 32.218891 -2.458615
2012-06-13 07:05:46 51°18.96 2°50.657 14.932 3.994386 32.227032 -2.458615
2012-06-13 07:05:51 51°18.974 2°50.643 14.928 3.99335 32.219079 -2.458615
2012-06-13 07:05:55 51°18.985 2°50.632 14.9266 3.99335 32.219079 -2.458615
2012-06-13 07:05:59 51°18.996 2°50.621 14.9263 3.994697 32.232565 -2.458615
2012-06-13 07:06:05 51°19.014 2°50.604 14.9269 3.994697 32.233933 -2.458615
2012-06-13 07:06:10 51°19.028 2°50.591 14.9261 3.994697 32.233933 -2.458615
2012-06-13 07:06:15 51°19.042 2°50.577 14.9235 3.994179 32.229956 -2.458615
2012-06-13 07:06:19 51°19.054 2°50.567 14.9229 3.993765 32.22828 -2.458615
2012-06-13 07:06:25 51°19.071 2°50.551 14.9257 3.993765 32.22828 -2.458615
2012-06-13 07:06:30 51°19.086 2°50.537 14.9195 3.993972 32.232198 -2.458615
2012-06-13 07:06:35 51°19.1 2°50.523 14.9153 3.99335 32.227972 -2.458615
2012-06-13 07:06:40 51°19.113 2°50.509 14.9207 3.993246 32.228408 -2.458615
2012-06-13 07:06:45 51°19.127 2°50.495 14.9158 3.992936 32.226295 -2.458615
2012-06-13 07:06:50 51°19.141 2°50.481 14.9152 3.992936 32.22698 -2.458615
2012-06-13 07:06:55 51°19.155 2°50.467 14.912 3.992936 32.22698 -2.458615
2012-06-13 07:06:59 51°19.167 2°50.456 14.9087 3.992728 32.226484 -2.458615
2012-06-13 07:07:05 51°19.183 2°50.438 14.9082 3.992107 32.221573 -2.458615
2012-06-13 07:07:10 51°19.197 2°50.423 14.9072 3.992003 32.222009 -2.458615
2012-06-13 07:07:15 51°19.211 2°50.408 14.9072 3.991485 32.218031 -2.458615
2012-06-13 07:07:20 51°19.224 2°50.392 14.9059 3.991692 32.221949 -2.458615
2012-06-13 07:07:25 51°19.238 2°50.377 14.9059 3.991692 32.221949 -2.458615
2012-06-13 07:07:31 51°19.254 2°50.358 14.9035 3.990759 32.214925 -2.458615
2012-06-13 07:07:35 51°19.264 2°50.346 14.9042 3.989827 32.209268 -2.458615
2012-06-13 07:07:40 51°19.277 2°50.33 14.9039 3.988376 32.19758 -2.458615
2012-06-13 07:07:46 51°19.293 2°50.312 14.9008 3.988376 32.198264 -2.458615
2012-06-13 07:07:51 51°19.306 2°50.296 14.8967 3.987443 32.191239 -2.458615
2012-06-13 07:07:55 51°19.317 2°50.284 14.899 3.987443 32.191239 -2.458615
2012-06-13 07:07:59 51°19.328 2°50.273 14.8986 3.986614 32.184462 -2.458615
2012-06-13 07:08:05 51°19.344 2°50.255 14.8994 3.984853 32.169975 -2.458615
2012-06-13 07:08:11 51°19.36 2°50.236 14.8957 3.984334 32.165995 -2.458615
2012-06-13 07:08:15 51°19.371 2°50.224 14.895 3.983816 32.162016 -2.458615
2012-06-13 07:08:20 51°19.384 2°50.21 14.8966 3.983298 32.159403 -2.458615
2012-06-13 07:08:25 51°19.398 2°50.196 14.893 3.983298 32.159403 -2.458615
2012-06-13 07:08:31 51°19.415 2°50.179 14.8922 3.98392 32.166366 -2.458615
2012-06-13 07:08:35 51°19.426 2°50.168 14.8922 3.985164 32.177558 -2.458615
2012-06-13 07:08:40 51°19.44 2°50.155 14.8942 3.985993 32.185704 -2.458615
2012-06-13 07:08:45 51°19.454 2°50.141 14.895 3.987029 32.196401 -2.458615
2012-06-13 07:08:51 51°19.471 2°50.125 14.8939 3.988273 32.20828 -2.458615
2012-06-13 07:08:55 51°19.482 2°50.114 14.891 3.988273 32.20828 -2.458615
2012-06-13 07:08:59 51°19.493 2°50.104 14.8934 3.989827 32.223644 -2.458615
2012-06-13 07:09:05 51°19.51 2°50.088 14.8918 3.992625 32.249523 -2.458615
2012-06-13 07:09:10 51°19.524 2°50.074 14.8916 3.994801 32.26912 -2.458615
2012-06-13 07:09:15 51°19.538 2°50.06 14.8916 3.996356 32.28312 -2.458615
2012-06-13 07:09:20 51°19.551 2°50.046 14.8911 3.997392 32.292453 -2.458615
2012-06-13 07:09:25 51°19.565 2°50.032 14.8909 3.997392 32.292453 -2.458615
2012-06-13 07:09:30 51°19.578 2°50.018 14.8897 3.99791 32.297806 -2.458615
2012-06-13 07:09:35 51°19.592 2°50.004 14.8899 3.999568 32.313428 -2.458615
2012-06-13 07:09:40 51°19.605 2°49.989 14.8875 4.000087 32.318782 -2.458615
2012-06-13 07:09:45 51°19.619 2°49.974 14.8874 4.00019 32.319716 -2.458615
2012-06-13 07:09:50 51°19.632 2°49.959 14.8864 4.001019 32.327184 -2.458615
2012-06-13 07:09:55 51°19.645 2°49.944 14.8852 4.001019 32.327184 -2.458615
2012-06-13 07:10:00 51°19.659 2°49.929 14.8835 4.000916 32.326938 -2.458615
2012-06-13 07:10:06 51°19.674 2°49.911 14.8844 4.001641 32.333473 -2.458615
2012-06-13 07:10:10 51°19.685 2°49.899 14.8825 4.001952 32.337649 -2.458615
2012-06-13 07:10:15 51°19.698 2°49.884 14.8846 4.00247 32.343005 -2.458615
2012-06-13 07:10:21 51°19.713 2°49.866 14.8809 4.003299 32.351162 -2.458615
2012-06-13 07:10:25 51°19.724 2°49.854 14.8826 4.003299 32.351162 -2.458615
2012-06-13 07:10:30 51°19.738 2°49.84 14.8804 4.003092 32.349295 -2.458615
2012-06-13 07:10:35 51°19.752 2°49.827 14.8788 4.00361 32.354651 -2.458615
2012-06-13 07:10:40 51°19.765 2°49.813 14.8776 4.002988 32.350424 -2.458615
2012-06-13 07:10:46 51°19.781 2°49.796 14.8772 4.003403 32.35416 -2.458615
2012-06-13 07:10:51 51°19.795 2°49.782 14.8789 4.003092 32.352734 -2.458615
2012-06-13 07:10:55 51°19.806 2°49.772 14.8786 4.003092 32.352734 -2.458615
2012-06-13 07:10:59 51°19.817 2°49.761 14.8777 4.001952 32.34315 -2.458615
2012-06-13 07:11:05 51°19.834 2°49.745 14.8785 4.002263 32.346639 -2.458615
2012-06-13 07:11:10 51°19.848 2°49.732 14.877 4.001849 32.343591 -2.458615
2012-06-13 07:11:15 51°19.863 2°49.719 14.8755 4.000916 32.335874 -2.458615
2012-06-13 07:11:19 51°19.874 2°49.709 14.8775 4.001227 32.339364 -2.458615
2012-06-13 07:11:25 51°19.891 2°49.694 14.8767 4.001227 32.339364 -2.458615
2012-06-13 07:11:30 51°19.905 2°49.681 14.877 4.000294 32.330959 -2.458615
2012-06-13 07:11:35 51°19.919 2°49.668 14.8788 4.000087 32.329779 -2.458615
2012-06-13 07:11:40 51°19.934 2°49.655 14.8803 4.000709 32.335382 -2.458615
2012-06-13 07:11:45 51°19.947 2°49.642 14.8798 4.000294 32.331646 -2.458615
2012-06-13 07:11:50 51°19.961 2°49.628 14.8822 4.001641 32.344475 -2.458615
2012-06-13 07:11:55 51°19.975 2°49.614 14.8849 4.001641 32.344475 -2.458615
2012-06-13 07:12:00 51°19.989 2°49.6 14.8861 4.001538 32.344229 -2.458615
2012-06-13 07:12:05 51°20.002 2°49.586 14.8875 4.001952 32.348652 -2.458615
2012-06-13 07:12:10 51°20.016 2°49.573 14.8882 4.001538 32.343541 -2.458615
2012-06-13 07:12:15 51°20.03 2°49.559 14.8887 4.002367 32.350324 -2.458615
2012-06-13 07:12:20 51°20.044 2°49.545 14.8921 4.003092 32.356174 -2.458615
2012-06-13 07:12:25 51°20.057 2°49.531 14.8914 4.003092 32.356174 -2.458615
2012-06-13 07:12:30 51°20.071 2°49.517 14.8928 4.004129 32.364825 -2.458615
2012-06-13 07:12:35 51°20.085 2°49.502 14.8941 4.005061 32.371854 -2.458615
2012-06-13 07:12:40 51°20.098 2°49.488 14.8951 4.006512 32.383553 -2.458615
2012-06-13 07:12:46 51°20.115 2°49.472 14.8944 4.006823 32.384978 -2.458615
2012-06-13 07:12:51 51°20.129 2°49.458 14.8958 4.006927 32.385223 -2.458615
2012-06-13 07:12:55 51°20.14 2°49.447 14.8951 4.006927 32.385223 -2.458615
2012-06-13 07:12:59 51°20.151 2°49.436 14.8976 4.006823 32.382224 -2.458615
2012-06-13 07:13:05 51°20.168 2°49.419 14.8965 4.004854 32.363793 -2.458615
2012-06-13 07:13:11 51°20.184 2°49.403 14.8993 4.004232 32.356815 -2.458615
2012-06-13 07:13:15 51°20.195 2°49.391 14.9011 4.003092 32.345856 -2.458615
2012-06-13 07:13:20 51°20.209 2°49.377 14.8987 4.001227 32.328364 -2.458615
2012-06-13 07:13:25 51°20.223 2°49.362 14.8999 4.001227 32.328364 -2.458615
2012-06-13 07:13:31 51°20.239 2°49.345 14.902 3.999568 32.312741 -2.458615
2012-06-13 07:13:35 51°20.25 2°49.334 14.8999 3.998636 32.303653 -2.458615
2012-06-13 07:13:40 51°20.264 2°49.32 14.9011 3.997185 32.290586 -2.458615
2012-06-13 07:13:45 51°20.278 2°49.306 14.9014 3.995112 32.270548 -2.458615
2012-06-13 07:13:50 51°20.292 2°49.292 14.902 3.994698 32.26613 -2.458615
2012-06-13 07:13:55 51°20.306 2°49.279 14.9008 3.994698 32.26613 -2.458615
2012-06-13 07:13:59 51°20.317 2°49.268 14.9037 3.992625 32.246781 -2.458615
2012-06-13 07:14:05 51°20.334 2°49.252 14.9032 3.991692 32.237699 -2.458615
2012-06-13 07:14:10 51°20.347 2°49.238 14.9057 3.991174 32.232348 -2.458615
2012-06-13 07:14:15 51°20.361 2°49.223 14.9048 3.990138 32.223019 -2.458615
2012-06-13 07:14:20 51°20.375 2°49.209 14.9053 3.989516 32.217421 -2.458615
2012-06-13 07:14:25 51°20.388 2°49.194 14.9075 3.989516 32.217421 -2.458615
2012-06-13 07:14:30 51°20.401 2°49.18 14.9101 3.988583 32.208341 -2.458615
2012-06-13 07:14:35 51°20.415 2°49.166 14.9134 3.988272 32.205542 -2.458615
2012-06-13 07:14:40 51°20.428 2°49.152 14.9136 3.987651 32.199261 -2.458615
2012-06-13 07:14:45 51°20.442 2°49.138 14.9153 3.988065 32.202308 -2.458615
2012-06-13 07:14:50 51°20.456 2°49.124 14.918 3.987547 32.196275 -2.458615
2012-06-13 07:14:55 51°20.469 2°49.11 14.9183 3.987547 32.196275 -2.458615
2012-06-13 07:15:00 51°20.483 2°49.096 14.9218 3.988065 32.200255 -2.458615
2012-06-13 07:15:06 51°20.5 2°49.079 14.9247 3.986925 32.189311 -2.458615
2012-06-13 07:15:11 51°20.514 2°49.065 14.9267 3.988169 32.198451 -2.458615
2012-06-13 07:15:15 51°20.525 2°49.053 14.9273 3.989101 32.205477 -2.458615
2012-06-13 07:15:20 51°20.538 2°49.039 14.9285 3.98962 32.208772 -2.458615
2012-06-13 07:15:26 51°20.555 2°49.022 14.9292 3.98962 32.208772 -2.458615
2012-06-13 07:15:30 51°20.566 2°49.011 14.9308 3.991278 32.221641 -2.458615
2012-06-13 07:15:35 51°20.58 2°48.996 14.9314 3.99107 32.218407 -2.458615
2012-06-13 07:15:40 51°20.594 2°48.982 14.9338 3.993039 32.234073 -2.458615
2012-06-13 07:15:45 51°20.607 2°48.968 14.9352 3.993454 32.235749 -2.458615
2012-06-13 07:15:51 51°20.625 2°48.951 14.9362 3.994905 32.246751 -2.458615
2012-06-13 07:15:55 51°20.636 2°48.94 14.9386 3.994905 32.246751 -2.458615
2012-06-13 07:15:59 51°20.647 2°48.929 14.9417 3.996563 32.260302 -2.458615
2012-06-13 07:16:05 51°20.664 2°48.913 14.9435 3.997599 32.268943 -2.458615
2012-06-13 07:16:10 51°20.678 2°48.899 14.9443 3.999361 32.282742 -2.458615
2012-06-13 07:16:15 51°20.692 2°48.885 14.948 4.000708 32.293495 -2.458615
2012-06-13 07:16:20 51°20.706 2°48.872 14.9475 4.000708 32.292124 -2.458615
2012-06-13 07:16:25 51°20.72 2°48.858 14.9482 4.000708 32.292124 -2.458615
2012-06-13 07:16:30 51°20.734 2°48.844 14.9495 4.002159 32.303809 -2.458615
2012-06-13 07:16:35 51°20.748 2°48.83 14.9505 4.002262 32.302684 -2.458615
2012-06-13 07:16:40 51°20.762 2°48.817 14.9516 4.003402 32.310884 -2.458615
2012-06-13 07:16:45 51°20.776 2°48.804 14.951 4.004957 32.323501 -2.458615
2012-06-13 07:16:50 51°20.79 2°48.789 14.9506 4.005371 32.325858 -2.458615
2012-06-13 07:16:55 51°20.804 2°48.776 14.951 4.005371 32.325858 -2.458615
2012-06-13 07:17:00 51°20.819 2°48.763 14.951 4.006822 32.337542 -2.458615
2012-06-13 07:17:05 51°20.833 2°48.749 14.9514 4.007859 32.345494 -2.458615
2012-06-13 07:17:10 51°20.847 2°48.736 14.9548 4.008791 32.352514 -2.458615
2012-06-13 07:17:15 51°20.862 2°48.723 14.9565 4.009931 32.362086 -2.458615
2012-06-13 07:17:19 51°20.873 2°48.712 14.9568 4.010864 32.369792 -2.458615
2012-06-13 07:17:25 51°20.89 2°48.695 14.9583 4.010864 32.369792 -2.458615
2012-06-13 07:17:30 51°20.904 2°48.681 14.9589 4.011486 32.374701 -2.458615
2012-06-13 07:17:35 51°20.918 2°48.667 14.9605 4.012211 32.381229 -2.458615
2012-06-13 07:17:40 51°20.932 2°48.652 14.9623 4.01304 32.388003 -2.458615
2012-06-13 07:17:45 51°20.946 2°48.638 14.9636 4.013973 32.395709 -2.458615
2012-06-13 07:17:51 51°20.963 2°48.62 14.9631 4.015113 32.405281 -2.458615
2012-06-13 07:17:55 51°20.974 2°48.608 14.9638 4.015113 32.405281 -2.458615
2012-06-13 07:18:00 51°20.988 2°48.594 14.9643 4.016253 32.414165 -2.458615
2012-06-13 07:18:05 51°21.002 2°48.581 14.9656 4.017186 32.421872 -2.458615
2012-06-13 07:18:11 51°21.019 2°48.564 14.9658 4.017911 32.427025 -2.458615
2012-06-13 07:18:15 51°21.031 2°48.552 14.9684 4.018222 32.428447 -2.458615
2012-06-13 07:18:20 51°21.045 2°48.538 14.9695 4.018637 32.430801 -2.458615
2012-06-13 07:18:25 51°21.059 2°48.524 14.9692 4.018637 32.430801 -2.458615
2012-06-13 07:18:30 51°21.073 2°48.51 14.9699 4.019051 32.433844 -2.458615
2012-06-13 07:18:35 51°21.087 2°48.495 14.9701 4.019362 32.435265 -2.458615
2012-06-13 07:18:39 51°21.097 2°48.483 14.971 4.018533 32.427117 -2.458615
2012-06-13 07:18:45 51°21.114 2°48.465 14.9724 4.019258 32.432956 -2.458615
2012-06-13 07:18:50 51°21.128 2°48.45 14.9703 4.019362 32.433201 -2.458615
2012-06-13 07:18:55 51°21.141 2°48.435 14.9713 4.019362 32.433201 -2.458615
2012-06-13 07:19:00 51°21.155 2°48.419 14.9704 4.01874 32.42623 -2.458615
2012-06-13 07:19:05 51°21.168 2°48.404 14.9684 4.018222 32.421568 -2.458615
2012-06-13 07:19:10 51°21.182 2°48.388 14.9671 4.018015 32.418327 -2.458615
2012-06-13 07:19:15 51°21.196 2°48.373 14.9681 4.017704 32.41553 -2.458615
2012-06-13 07:19:20 51°21.209 2°48.358 14.9662 4.017704 32.414843 -2.458615
2012-06-13 07:19:25 51°21.224 2°48.344 14.9666 4.017704 32.414843 -2.458615
2012-06-13 07:19:30 51°21.238 2°48.329 14.964 4.017496 32.412978 -2.458615
2012-06-13 07:19:35 51°21.252 2°48.315 14.9586 4.019051 32.426964 -2.458615
2012-06-13 07:19:40 51°21.266 2°48.301 14.9587 4.019466 32.431382 -2.458615
2012-06-13 07:19:45 51°21.28 2°48.287 14.9547 4.019984 32.436044 -2.458615
2012-06-13 07:19:50 51°21.294 2°48.273 14.955 4.019673 32.433935 -2.458615
2012-06-13 07:19:55 51°21.309 2°48.258 14.9512 4.019673 32.433935 -2.458615
2012-06-13 07:20:00 51°21.323 2°48.244 14.9482 4.019362 32.431825 -2.458615
2012-06-13 07:20:05 51°21.337 2°48.23 14.945 4.020295 32.440906 -2.458615
2012-06-13 07:20:11 51°21.355 2°48.214 14.9407 4.020502 32.444148 -2.458615
2012-06-13 07:20:15 51°21.366 2°48.202 14.9373 4.019258 32.435021 -2.458615
2012-06-13 07:20:20 51°21.38 2°48.189 14.9334 4.021227 32.454807 -2.458615
2012-06-13 07:20:25 51°21.395 2°48.175 14.9325 4.021227 32.454807 -2.458615
2012-06-13 07:20:31 51°21.413 2°48.16 14.9314 4.020606 32.451276 -2.458615
2012-06-13 07:20:35 51°21.424 2°48.149 14.9231 4.020398 32.451476 -2.458615
2012-06-13 07:20:40 51°21.439 2°48.135 14.9216 4.020502 32.455164 -2.458615
2012-06-13 07:20:45 51°21.453 2°48.122 14.9207 4.020917 32.460963 -2.458615
2012-06-13 07:20:50 51°21.468 2°48.109 14.9184 4.020917 32.465097 -2.458615
2012-06-13 07:20:55 51°21.483 2°48.095 14.9124 4.020917 32.465097 -2.458615
2012-06-13 07:21:00 51°21.498 2°48.082 14.9117 4.021435 32.47252 -2.458615
2012-06-13 07:21:05 51°21.513 2°48.069 14.909 4.022161 32.481122 -2.458615
2012-06-13 07:21:10 51°21.527 2°48.056 14.8979 4.022679 32.489238 -2.458615
2012-06-13 07:21:15 51°21.542 2°48.043 14.8912 4.023301 32.498289 -2.458615
2012-06-13 07:21:20 51°21.556 2°48.03 14.8788 4.024544 32.511563 -2.458615
2012-06-13 07:21:25 51°21.571 2°48.017 14.8647 4.024544 32.511563 -2.458615
2012-06-13 07:21:30 51°21.585 2°48.004 14.8596 4.02527 32.520862 -2.458615
2012-06-13 07:21:35 51°21.6 2°47.992 14.8502 4.026099 32.531097 -2.458615
2012-06-13 07:21:40 51°21.615 2°47.979 14.8327 4.027343 32.545761 -2.458615
2012-06-13 07:21:45 51°21.629 2°47.967 14.8258 4.028897 32.564615 -2.458615
2012-06-13 07:21:50 51°21.643 2°47.954 14.8156 4.031178 32.592096 -2.458615
2012-06-13 07:21:55 51°21.657 2°47.94 14.7978 4.031178 32.592096 -2.458615
2012-06-13 07:22:00 51°21.671 2°47.926 14.7984 4.032732 32.613047 -2.458615
2012-06-13 07:22:06 51°21.687 2°47.908 14.7845 4.034391 32.636332 -2.458615
2012-06-13 07:22:11 51°21.7 2°47.894 14.7791 4.036775 32.666178 -2.458615
2012-06-13 07:22:15 51°21.711 2°47.883 14.772 4.03978 32.705137 -2.458615
2012-06-13 07:22:19 51°21.722 2°47.871 14.7673 4.042579 32.738771 -2.458615
2012-06-13 07:22:25 51°21.738 2°47.854 14.7645 4.042579 32.738771 -2.458615
2012-06-13 07:22:31 51°21.755 2°47.837 14.7602 4.04631 32.785743 -2.458615
2012-06-13 07:22:35 51°21.765 2°47.825 14.7521 4.050249 32.830437 -2.458615
2012-06-13 07:22:40 51°21.778 2°47.809 14.7562 4.053047 32.864148 -2.458615
2012-06-13 07:22:45 51°21.791 2°47.794 14.7475 4.056675 32.904682 -2.458615
2012-06-13 07:22:51 51°21.807 2°47.776 14.748 4.058852 32.932104 -2.458615
2012-06-13 07:22:55 51°21.817 2°47.764 14.7464 4.058852 32.932104 -2.458615
2012-06-13 07:23:00 51°21.831 2°47.748 14.743 4.061236 32.960715 -2.458615
2012-06-13 07:23:05 51°21.844 2°47.734 14.7386 4.063827 32.990515 -2.458615
2012-06-13 07:23:10 51°21.857 2°47.719 14.7382 4.064863 33.005539 -2.458615
2012-06-13 07:23:15 51°21.87 2°47.704 14.7331 4.066418 33.022444 -2.458615
2012-06-13 07:23:19 51°21.881 2°47.692 14.7344 4.067766 33.038886 -2.458615
2012-06-13 07:23:25 51°21.897 2°47.674 14.7356 4.067766 33.038886 -2.458615
2012-06-13 07:23:30 51°21.91 2°47.66 14.7319 4.068491 33.048989 -2.458615
2012-06-13 07:23:35 51°21.923 2°47.645 14.7316 4.069321 33.059329 -2.458615
2012-06-13 07:23:40 51°21.937 2°47.63 14.7307 4.070357 33.070844 -2.458615
2012-06-13 07:23:45 51°21.95 2°47.616 14.7321 4.071186 33.081895 -2.458615
2012-06-13 07:23:51 51°21.966 2°47.598 14.7323 4.070564 33.078375 -2.458615
2012-06-13 07:23:55 51°21.977 2°47.587 14.7383 4.070564 33.078375 -2.458615
2012-06-13 07:24:00 51°21.991 2°47.573 14.7329 4.071705 33.090835 -2.458615
2012-06-13 07:24:06 51°22.007 2°47.555 14.7362 4.072534 33.099769 -2.458615
2012-06-13 07:24:11 51°22.021 2°47.541 14.7339 4.073259 33.107764 -2.458615
2012-06-13 07:24:15 51°22.032 2°47.53 14.737 4.073674 33.112232 -2.458615
2012-06-13 07:24:19 51°22.042 2°47.519 14.7389 4.074814 33.123283 -2.458615
2012-06-13 07:24:25 51°22.059 2°47.503 14.7363 4.074814 33.123283 -2.458615
2012-06-13 07:24:31 51°22.076 2°47.487 14.7405 4.075125 33.125396 -2.458615
2012-06-13 07:24:35 51°22.087 2°47.476 14.7424 4.07554 33.128449 -2.458615
2012-06-13 07:24:40 51°22.102 2°47.464 14.7459 4.075747 33.13033 -2.458615
2012-06-13 07:24:45 51°22.116 2°47.451 14.7476 4.076369 33.135971 -2.458615
2012-06-13 07:24:51 51°22.133 2°47.436 14.7476 4.076369 33.135263 -2.458615
2012-06-13 07:24:55 51°22.145 2°47.426 14.7505 4.076369 33.135263 -2.458615
2012-06-13 07:25:00 51°22.159 2°47.414 14.7497 4.075851 33.129854 -2.458615
2012-06-13 07:25:05 51°22.174 2°47.402 14.7529 4.076783 33.137609 -2.458615
2012-06-13 07:25:10 51°22.189 2°47.389 14.752 4.07554 33.124911 -2.458615
2012-06-13 07:25:15 51°22.203 2°47.376 14.7533 4.07471 33.115975 -2.458615
2012-06-13 07:25:20 51°22.218 2°47.364 14.7536 4.073259 33.1014 -2.458615
2012-06-13 07:25:25 51°22.232 2°47.351 14.758 4.073259 33.1014 -2.458615
2012-06-13 07:25:30 51°22.246 2°47.338 14.7545 4.073052 33.098106 -2.458615
2012-06-13 07:25:35 51°22.26 2°47.324 14.7537 4.072015 33.087294 -2.458615
2012-06-13 07:25:40 51°22.274 2°47.311 14.7545 4.071186 33.077656 -2.458615
2012-06-13 07:25:45 51°22.288 2°47.297 14.755 4.070564 33.071311 -2.458615
2012-06-13 07:25:50 51°22.302 2°47.283 14.7531 4.07015 33.06614 -2.458615
2012-06-13 07:25:55 51°22.315 2°47.268 14.7567 4.07015 33.06614 -2.458615
2012-06-13 07:26:00 51°22.329 2°47.254 14.7551 4.069321 33.057917 -2.458615
2012-06-13 07:26:06 51°22.345 2°47.236 14.753 4.068906 33.053453 -2.458615
2012-06-13 07:26:11 51°22.359 2°47.222 14.7559 4.069113 33.055332 -2.458615
2012-06-13 07:26:15 51°22.369 2°47.211 14.7549 4.069631 33.06003 -2.458615
2012-06-13 07:26:19 51°22.38 2°47.199 14.7561 4.069942 33.062143 -2.458615
2012-06-13 07:26:25 51°22.397 2°47.182 14.7595 4.069942 33.062143 -2.458615
2012-06-13 07:26:30 51°22.411 2°47.169 14.7594 4.069735 33.060264 -2.458615
2012-06-13 07:26:35 51°22.425 2°47.156 14.7581 4.070461 33.066841 -2.458615
2012-06-13 07:26:40 51°22.439 2°47.142 14.7581 4.07015 33.064022 -2.458615
2012-06-13 07:26:45 51°22.453 2°47.129 14.7585 4.069217 33.055566 -2.458615
2012-06-13 07:26:51 51°22.471 2°47.114 14.7583 4.069631 33.058619 -2.458615
2012-06-13 07:26:55 51°22.482 2°47.104 14.7603 4.069631 33.058619 -2.458615
2012-06-13 07:27:00 51°22.497 2°47.091 14.7587 4.069528 33.056973 -2.458615
2012-06-13 07:27:05 51°22.512 2°47.079 14.7588 4.06901 33.05157 -2.458615
2012-06-13 07:27:10 51°22.526 2°47.066 14.7589 4.069424 33.054622 -2.458615
2012-06-13 07:27:15 51°22.541 2°47.053 14.7584 4.068699 33.048046 -2.458615
2012-06-13 07:27:20 51°22.555 2°47.04 14.7573 4.068388 33.045228 -2.458615
2012-06-13 07:27:25 51°22.569 2°47.026 14.7585 4.068388 33.045228 -2.458615
2012-06-13 07:27:30 51°22.584 2°47.012 14.7572 4.068077 33.042409 -2.458615
2012-06-13 07:27:35 51°22.597 2°46.998 14.7577 4.067973 33.040765 -2.458615
2012-06-13 07:27:40 51°22.612 2°46.985 14.7598 4.067558 33.037007 -2.458615
2012-06-13 07:27:45 51°22.626 2°46.971 14.7583 4.067662 33.037946 -2.458615
2012-06-13 07:27:50 51°22.64 2°46.957 14.7586 4.068284 33.044288 -2.458615
2012-06-13 07:27:55 51°22.654 2°46.944 14.7564 4.068284 33.044288 -2.458615
2012-06-13 07:28:00 51°22.668 2°46.93 14.7581 4.068077 33.042409 -2.458615
2012-06-13 07:28:05 51°22.682 2°46.915 14.7571 4.068077 33.042409 -2.458615
2012-06-13 07:28:10 51°22.696 2°46.901 14.7595 4.06818 33.043349 -2.458615
2012-06-13 07:28:15 51°22.71 2°46.887 14.757 4.069113 33.051098 -2.458615
2012-06-13 07:28:20 51°22.724 2°46.873 14.7571 4.069113 33.051098 -2.458615
2012-06-13 07:28:25 51°22.738 2°46.858 14.7595 4.069113 33.051098 -2.458615
2012-06-13 07:28:30 51°22.752 2°46.843 14.7607 4.06901 33.050864 -2.458615
2012-06-13 07:28:35 51°22.765 2°46.828 14.7575 4.06932 33.053683 -2.458615
2012-06-13 07:28:40 51°22.779 2°46.814 14.7573 4.069528 33.055562 -2.458615
2012-06-13 07:28:45 51°22.793 2°46.799 14.757 4.06901 33.050864 -2.458615
2012-06-13 07:28:51 51°22.809 2°46.781 14.7585 4.070046 33.060259 -2.458615
2012-06-13 07:28:55 51°22.82 2°46.769 14.7585 4.070046 33.060259 -2.458615
2012-06-13 07:29:00 51°22.834 2°46.755 14.7578 4.070564 33.064957 -2.458615
2012-06-13 07:29:05 51°22.848 2°46.74 14.7635 4.069113 33.051804 -2.458615
2012-06-13 07:29:11 51°22.865 2°46.723 14.7611 4.070253 33.062138 -2.458615
2012-06-13 07:29:15 51°22.876 2°46.711 14.7612 4.069631 33.056501 -2.458615
2012-06-13 07:29:20 51°22.89 2°46.697 14.7625 4.071601 33.075058 -2.458615
2012-06-13 07:29:25 51°22.904 2°46.683 14.7666 4.071601 33.075058 -2.458615
2012-06-13 07:29:30 51°22.918 2°46.67 14.7646 4.071186 33.070594 -2.458615
2012-06-13 07:29:35 51°22.932 2°46.657 14.7632 4.07129 33.071534 -2.458615
2012-06-13 07:29:40 51°22.947 2°46.644 14.7645 4.071393 33.071767 -2.458615
2012-06-13 07:29:45 51°22.961 2°46.632 14.7646 4.072015 33.075992 -2.458615
2012-06-13 07:29:50 51°22.976 2°46.62 14.7657 4.072326 33.078105 -2.458615
2012-06-13 07:29:55 51°22.99 2°46.607 14.7667 4.072326 33.078105 -2.458615
2012-06-13 07:29:59 51°23.002 2°46.597 14.7668 4.072326 33.077399 -2.458615
2012-06-13 07:30:05 51°23.019 2°46.581 14.768 4.073363 33.086087 -2.458615
2012-06-13 07:30:10 51°23.034 2°46.569 14.7691 4.073155 33.084208 -2.458615
2012-06-13 07:30:15 51°23.048 2°46.554 14.7684 4.072015 33.073168 -2.458615
2012-06-13 07:30:20 51°23.062 2°46.542 14.7701 4.073363 33.084675 -2.458615
2012-06-13 07:30:25 51°23.076 2°46.527 14.7688 4.073363 33.084675 -2.458615
2012-06-13 07:30:31 51°23.093 2°46.509 14.7711 4.073363 33.084675 -2.458615
2012-06-13 07:30:35 51°23.104 2°46.497 14.772 4.073259 33.083029 -2.458615
2012-06-13 07:30:40 51°23.118 2°46.482 14.7723 4.073155 33.081384 -2.458615
2012-06-13 07:30:46 51°23.134 2°46.464 14.7716 4.074399 33.091951 -2.458615
2012-06-13 07:30:51 51°23.148 2°46.449 14.7706 4.074503 33.09289 -2.458615
2012-06-13 07:30:55 51°23.159 2°46.437 14.7712 4.074503 33.09289 -2.458615
2012-06-13 07:30:59 51°23.17 2°46.425 14.7698 4.074503 33.092184 -2.458615
2012-06-13 07:31:05 51°23.186 2°46.406 14.7694 4.075228 33.098054 -2.458615
2012-06-13 07:31:11 51°23.202 2°46.388 14.7721 4.075125 33.096408 -2.458615
2012-06-13 07:31:15 51°23.213 2°46.375 14.77 4.075539 33.099459 -2.458615
2012-06-13 07:31:20 51°23.226 2°46.359 14.77 4.076057 33.104156 -2.458615
2012-06-13 07:31:25 51°23.238 2°46.342 14.7705 4.076057 33.104156 -2.458615
2012-06-13 07:31:31 51°23.251 2°46.32 14.7704 4.076679 33.109793 -2.458615
2012-06-13 07:31:35 51°23.26 2°46.305 14.77 4.077094 33.113551 -2.458615
2012-06-13 07:31:40 51°23.27 2°46.285 14.7686 4.077612 33.118955 -2.458615
2012-06-13 07:31:45 51°23.28 2°46.265 14.7684 4.077716 33.119895 -2.458615
2012-06-13 07:31:50 51°23.289 2°46.244 14.7684 4.07782 33.120834 -2.458615
2012-06-13 07:31:55 51°23.298 2°46.223 14.7689 4.07782 33.120834 -2.458615
2012-06-13 07:31:59 51°23.304 2°46.206 14.7638 4.078338 33.125532 -2.458615
2012-06-13 07:32:05 51°23.314 2°46.18 14.7595 4.078752 33.12929 -2.458615
2012-06-13 07:32:10 51°23.322 2°46.158 14.7592 4.07813 33.123653 -2.458615
2012-06-13 07:32:15 51°23.33 2°46.137 14.7599 4.078649 33.129058 -2.458615
2012-06-13 07:32:20 51°23.338 2°46.115 14.755 4.079063 33.132816 -2.458615
2012-06-13 07:32:25 51°23.348 2°46.094 14.7524 4.079063 33.132816 -2.458615
2012-06-13 07:32:30 51°23.356 2°46.072 14.7494 4.078856 33.131644 -2.458615
2012-06-13 07:32:35 51°23.366 2°46.052 14.7493 4.079374 33.137049 -2.458615
2012-06-13 07:32:40 51°23.375 2°46.031 14.7451 4.078338 33.130482 -2.458615
2012-06-13 07:32:45 51°23.385 2°46.011 14.743 4.079478 33.141526 -2.458615
2012-06-13 07:32:50 51°23.395 2°45.99 14.7403 4.078856 33.137302 -2.458615
2012-06-13 07:32:55 51°23.405 2°45.97 14.733 4.078856 33.137302 -2.458615
2012-06-13 07:33:00 51°23.415 2°45.95 14.7305 4.07896 33.140365 -2.458615
2012-06-13 07:33:06 51°23.427 2°45.926 14.7274 4.079167 33.144367 -2.458615
2012-06-13 07:33:11 51°23.437 2°45.906 14.7241 4.078649 33.14179 -2.458615
2012-06-13 07:33:15 51°23.446 2°45.89 14.7206 4.079064 33.148381 -2.458615
2012-06-13 07:33:19 51°23.454 2°45.873 14.7164 4.078234 33.142985 -2.458615
2012-06-13 07:33:25 51°23.467 2°45.849 14.7131 4.078234 33.142985 -2.458615
2012-06-13 07:33:31 51°23.48 2°45.826 14.7054 4.078027 33.144644 -2.458615
2012-06-13 07:33:35 51°23.488 2°45.81 14.7029 4.078131 33.148416 -2.458615
2012-06-13 07:33:40 51°23.5 2°45.79 14.6926 4.077716 33.148195 -2.458615
2012-06-13 07:33:45 51°23.511 2°45.771 14.6889 4.076784 33.143273 -2.458615
2012-06-13 07:33:51 51°23.524 2°45.748 14.6751 4.076576 33.144933 -2.458615
2012-06-13 07:33:55 51°23.533 2°45.732 14.674 4.076576 33.144933 -2.458615
2012-06-13 07:34:00 51°23.544 2°45.712 14.662 4.076473 33.147534 -2.458615
2012-06-13 07:34:05 51°23.555 2°45.693 14.648 4.076162 33.148963 -2.458615
2012-06-13 07:34:10 51°23.566 2°45.674 14.6441 4.075955 33.151333 -2.458615
2012-06-13 07:34:15 51°23.577 2°45.655 14.6269 4.076058 33.157945 -2.458615
2012-06-13 07:34:19 51°23.586 2°45.64 14.616 4.076369 33.167151 -2.458615
2012-06-13 07:34:25 51°23.599 2°45.617 14.5985 4.076369 33.167151 -2.458615
2012-06-13 07:34:30 51°23.611 2°45.599 14.5927 4.076577 33.176129 -2.458615
2012-06-13 07:34:35 51°23.622 2°45.579 14.5851 4.07637 33.180635 -2.458615
2012-06-13 07:34:40 51°23.633 2°45.56 14.575 4.077406 33.199286 -2.458615
2012-06-13 07:34:45 51°23.643 2°45.54 14.5679 4.078443 33.217949 -2.458615
2012-06-13 07:34:51 51°23.656 2°45.517 14.5614 4.079479 33.235911 -2.458615
2012-06-13 07:34:55 51°23.665 2°45.501 14.5441 4.079479 33.235911 -2.458615
2012-06-13 07:35:00 51°23.676 2°45.482 14.5374 4.081864 33.271842 -2.458615
2012-06-13 07:35:06 51°23.689 2°45.458 14.5283 4.083108 33.294575 -2.458615
2012-06-13 07:35:11 51°23.7 2°45.439 14.5203 4.084559 33.316353 -2.458615
2012-06-13 07:35:15 51°23.709 2°45.424 14.5122 4.085181 33.331308 -2.458615
2012-06-13 07:35:19 51°23.718 2°45.408 14.5051 4.087876 33.364442 -2.458615
2012-06-13 07:35:25 51°23.731 2°45.385 14.5082 4.087876 33.364442 -2.458615
2012-06-13 07:35:31 51°23.744 2°45.361 14.4955 4.089949 33.393362 -2.458615
2012-06-13 07:35:35 51°23.753 2°45.346 14.4925 4.091815 33.421129 -2.458615
2012-06-13 07:35:40 51°23.764 2°45.326 14.492 4.093163 33.444189 -2.458615
2012-06-13 07:35:45 51°23.775 2°45.307 14.4938 4.093992 33.460379 -2.458615
2012-06-13 07:35:50 51°23.786 2°45.288 14.4816 4.094925 33.476805 -2.458615
2012-06-13 07:35:55 51°23.798 2°45.269 14.4792 4.094925 33.476805 -2.458615
2012-06-13 07:36:00 51°23.809 2°45.251 14.4744 4.095444 33.488734 -2.458615
2012-06-13 07:36:05 51°23.82 2°45.231 14.4716 4.095858 33.499001 -2.458615
2012-06-13 07:36:10 51°23.832 2°45.213 14.4715 4.096273 33.507831 -2.458615
2012-06-13 07:36:15 51°23.843 2°45.194 14.4652 4.09648 33.512608 -2.458615
2012-06-13 07:36:20 51°23.854 2°45.175 14.4684 4.09648 33.516213 -2.458615
2012-06-13 07:36:25 51°23.866 2°45.156 14.468 4.09648 33.516213 -2.458615
2012-06-13 07:36:30 51°23.876 2°45.136 14.4631 4.096584 33.522209 -2.458615
2012-06-13 07:36:35 51°23.886 2°45.117 14.4592 4.096999 33.532491 -2.458615
2012-06-13 07:36:40 51°23.896 2°45.096 14.4574 4.097206 33.537273 -2.458615
2012-06-13 07:36:45 51°23.907 2°45.076 14.4489 4.09731 33.54183 -2.458615
2012-06-13 07:36:50 51°23.917 2°45.056 14.4411 4.09731 33.544719 -2.458615
2012-06-13 07:36:55 51°23.927 2°45.036 14.4428 4.09731 33.544719 -2.458615
2012-06-13 07:37:00 51°23.937 2°45.016 14.4443 4.097103 33.544268 -2.458615
2012-06-13 07:37:06 51°23.949 2°44.991 14.4479 4.097103 33.546435 -2.458615
2012-06-13 07:37:11 51°23.958 2°44.97 14.4315 4.097206 33.550995 -2.458615
2012-06-13 07:37:15 51°23.966 2°44.954 14.4286 4.097103 33.552938 -2.458615
2012-06-13 07:37:19 51°23.974 2°44.937 14.4245 4.09731 33.559893 -2.458615
2012-06-13 07:37:25 51°23.986 2°44.912 14.4204 4.09731 33.559893 -2.458615
2012-06-13 07:37:30 51°23.996 2°44.891 14.4172 4.097621 33.567076 -2.458615
2012-06-13 07:37:35 51°24.005 2°44.87 14.4125 4.097725 33.570194 -2.458615
2012-06-13 07:37:39 51°24.012 2°44.853 14.4087 4.097725 33.573087 -2.458615
2012-06-13 07:37:45 51°24.024 2°44.828 14.4068 4.097932 33.577878 -2.458615
2012-06-13 07:37:50 51°24.034 2°44.807 14.3988 4.098243 33.585066 -2.458615
2012-06-13 07:37:55 51°24.043 2°44.786 14.3993 4.098243 33.585066 -2.458615
2012-06-13 07:38:00 51°24.053 2°44.764 14.4006 4.098451 33.590583 -2.458615
2012-06-13 07:38:05 51°24.063 2°44.744 14.3968 4.098969 33.600396 -2.458615
2012-06-13 07:38:11 51°24.075 2°44.72 14.3918 4.099384 33.607814 -2.458615
2012-06-13 07:38:15 51°24.083 2°44.703 14.3884 4.099902 33.617632 -2.458615
2012-06-13 07:38:20 51°24.093 2°44.682 14.3838 4.100317 33.62578 -2.458615
2012-06-13 07:38:25 51°24.103 2°44.662 14.3859 4.100317 33.62578 -2.458615
2012-06-13 07:38:30 51°24.113 2°44.641 14.3862 4.100731 33.632478 -2.458615
2012-06-13 07:38:35 51°24.123 2°44.62 14.3839 4.100835 33.635604 -2.458615
2012-06-13 07:38:40 51°24.132 2°44.6 14.3833 4.100835 33.638507 -2.458615
2012-06-13 07:38:45 51°24.142 2°44.58 14.3827 4.101146 33.644985 -2.458615
2012-06-13 07:38:50 51°24.152 2°44.559 14.376 4.101561 33.651688 -2.458615
2012-06-13 07:38:55 51°24.162 2°44.538 14.3722 4.101561 33.651688 -2.458615
2012-06-13 07:38:59 51°24.17 2°44.522 14.3716 4.101768 33.656493 -2.458615
2012-06-13 07:39:05 51°24.181 2°44.497 14.3699 4.101976 33.659845 -2.458615